Antena 3
Inicio Fin Dur Emisión Share Miles
02:30:00 03:04:15 00:34:15 LIVE CASINO 1,69 31,66
03:04:15 04:22:33 01:18:18 MINUTOS MUSICALES 0,85 9,15
04:22:33 05:32:48 01:10:15 MINUTOS MUSICALES 0,43 2,72
05:32:48 06:05:19 00:32:31 UNICOS 0,46 2,61
06:05:19 06:15:07 00:09:48 UNICOS 0,77 3,77
06:15:07 07:47:33 01:32:26 NOTICIAS DE LA MAÑANA 10,9 69,59
07:54:49 08:55:19 01:00:30 NOTICIAS DE LA MAÑANA 14,83 179,52
09:00:15 11:41:03 02:40:48 ESPEJO PUBLICO ES!VERANO 11,93 302,39
11:41:03 13:29:17 01:48:14 ESPEJO PUBLICO ES!VERANO:ULTIMA HORA 8,69 352,19
13:29:27 13:53:57 00:24:30 KARLOS ARGUIÑANO EN TU COCINA / RAYA AL HORNO CON HABAS Y ESPARRAGOS VERDES 11 660,73
13:54:07 15:00:06 01:05:59 LA RULETA DE LA SUERTE 13,65 1216,5
15:00:06 15:36:34 00:36:28 ANTENA 3 NOTICIAS 1 17,51 1950,37
15:36:34 15:46:48 00:10:14 DEPORTES 16,7 1870,4
16:08:30 16:29:29 00:20:59 TU TIEMPO 8,33 952,98
16:29:29 17:42:19 01:12:50 AMAR ES PARA SIEMPRE 10,74 1138,11
17:42:19 18:40:38 00:58:19 EL SECRETO DE PUENTE VIEJO 12,95 1191,33
18:50:04 20:07:59 01:17:55 ¡AHORA CAIGO! 12,18 927,29
20:07:59 21:04:04 00:56:05 ¡BOOM! 14,26 1206,68
21:04:04 21:38:45 00:34:41 ANTENA 3 NOTICIAS 2 12,01 1228,17
21:58:13 22:54:10 00:55:57 EL HORMIGUERO 3.0 STARS / ALEJANDRO SANZ 10,39 1278,25
22:54:30 24:52:42 01:58:12 CINE / SIGO COMO DIOS 13,41 1300,47
24:52:52 26:26:51 01:33:59 CINE 2 / LA HIJA DE LA NOVIA 8,9 336,66
La 1
Inicio Fin Dur Emisión Share Miles
02:30:00 02:54:30 00:24:30 CINE 2 / NELE EN BERLIN 6,74 132,94
03:00:07 03:29:22 00:29:15 NOTICIAS 24H 4,19 57,53
03:30:06 03:59:31 00:29:25 NOTICIAS 24H 2,83 29,95
04:00:06 04:25:22 00:25:16 NOTICIAS 24H 4 32,43
04:25:22 04:59:58 00:34:36 INFORME SEMANAL 3,98 27,29
05:00:03 05:29:10 00:29:07 CONVERSATORIOS EN CASA DE AMERICA / ALEJANDRO ROEMMERS 4,54 25,79
05:30:06 05:59:30 00:29:24 NOTICIAS 24H 7,89 45,78
06:00:06 06:29:31 00:29:25 NOTICIAS 24H 13,22 65,54
06:30:07 06:59:32 00:29:25 NOTICIAS 24H 14,71 82,75
07:00:06 09:58:49 02:58:43 NOTICIAS 24H 12,37 168,77
09:58:49 12:20:15 02:21:26 LA MAÑANA 6,89 205,72
12:23:16 13:23:56 01:00:40 A PARTIR DE HOY 5,81 251,81
13:23:56 13:54:45 00:30:49 HACER DE COMER / CANELONES DE CHAMPIÑONES 5,42 321,11
13:58:59 14:27:07 00:28:08 D.REG(INFORMATIVO TERRITORIAL 1) 5,8 468,69
14:32:07 15:00:06 00:27:59 CORAZON 8,44 848,5
15:05:03 15:59:41 00:54:38 TELEDIARIO 1 11,93 1333,45
15:59:41 16:11:52 00:12:11 D.REG(INFORMATIVO TERRITORIAL 2) 11,17 1257,24
16:16:37 16:28:38 00:12:01 D.REG(EL TIEMPO 1) 10,59 1213,98
16:28:38 17:26:35 00:57:57 SERVIR Y PROTEGER 8,47 911,87
17:26:35 18:23:49 00:57:14 ACACIAS 38 7,9 757,04
18:23:49 19:16:14 00:52:25 JUEGAS O QUE 3,87 312,65
19:16:14 20:25:53 01:09:39 ESPAÑA DIRECTO 5,02 383,49
20:30:42 21:00:06 00:29:24 AQUI LA TIERRA 8,45 737,92
21:03:58 22:05:54 01:01:56 TELEDIARIO 2 10,97 1178,82
21:54:50 22:05:50 00:11:00 EL TIEMPO 2 12,68 1487,1
22:12:21 22:46:58 00:34:37 VIAJE AL CENTRO DE LA TELE:GRANDES EXITOS / A FUEGO LENTO 9,96 1238,21
22:46:58 23:43:18 00:56:20 7 DIAS SIN ELLAS 5,83 679,92
23:43:18 24:33:03 00:49:45 TRABAJO TEMPORAL 5,89 532,8
24:33:03 25:30:42 00:57:39 TRABAJO TEMPORAL 5,87 327,69
25:30:42 26:29:59 00:59:17 LA SONATA DEL SILENCIO / MARTA Y ELENA 2,16 64,98
La 2
Inicio Fin Dur Emisión Share Miles
02:30:00 03:16:57 00:46:57 LA HUELLA DEL CRIMEN / EL CRIMEN DEL CAPITAN SANCHEZ 2,8 48,84
03:16:57 04:08:34 00:51:37 EL CIRCULO MALEFICO DE HITLER / EL AUGE Y LA CAIDA DE REINHARD HEYDRICH 2,17 23,34
04:08:34 04:54:40 00:46:06 WOODSTOCK:TRES DIAS QUE MARCARON A UNA GENERACION 2,1 15,33
04:54:40 06:07:53 01:13:13 LA NOCHE TEMATICA 2,84 16,19
04:54:43 05:40:21 00:45:38 EL CLUB DE LA LUCHA GASTRONOMICA DE JAMIE Y JIMMY 2,99 17,25
05:40:21 06:07:49 00:27:28 BUBBLES 2,6 14,48
06:07:53 06:30:08 00:22:15 LA 2 EXPRESS 2,64 12,98
06:30:08 06:45:06 00:14:58 THAT'S ENGLISH 1,94 10,64
06:45:06 06:59:58 00:14:52 THAT'S ENGLISH 1,89 10,87
06:59:58 07:05:16 00:05:18 LA 2 EXPRESS 1,47 9,43
07:05:16 07:30:30 00:25:14 IBER,PASION INDOMITA / LA UNION,HACE LA VIDA 1,1 7,92
07:30:30 07:57:38 00:27:08 INGLES ONLINE TVE 2,37 18,89
07:59:33 08:51:13 00:51:40 LAS ISLAS MAS SALVAJES DE INDONESIA / MUNDOS SECRETOS 0,98 11,89
08:54:15 09:01:28 00:07:13 LA 2 EXPRESS 0,46 7,53
09:01:28 09:27:54 00:26:26 EL ESCARABAJO VERDE / UNA RELACION¿TOXICA? 0,43 8,23
09:29:49 09:58:11 00:28:22 BUBBLES 0,89 19,94
09:58:11 10:42:09 00:43:58 RUTA VIA DE LA PLATA / EMERITA AUGUSTA 2,57 66,36
10:45:05 11:36:33 00:51:28 DOCUMENTA2 1,14 33,48
10:45:17 11:36:21 00:51:04 LA SENDA DESDE JESUCRISTO HASTA CONSTANTINO / EL GRAN MISIONERO 1,13 33,12
11:39:30 12:25:22 00:45:52 GRANDES DISEÑOS 2,12 74,24
12:28:02 14:05:03 01:37:01 MAÑANAS DE CINE / TEPEPA 3,45 178,19
14:05:03 14:47:40 00:42:37 VERANO AZUL / LAS BOTELLAS 4,06 363,25
14:50:08 15:45:25 00:55:17 LA HISTORIA DE CHINA / LOS MING 1,78 196,73
15:49:44 16:31:06 00:41:22 SABER Y GANAR 5,81 657,75
16:31:06 18:09:33 01:38:27 GRANDES DOCUMENTALES 4,96 511,22
16:31:28 17:20:09 00:48:41 LA MANADA / DIAS PELIGROSOS 4,66 503,66
17:20:09 18:09:29 00:49:20 YELLOWSTONE SALVAJE / VERANO GRIZZLIE 5,29 519,05
18:12:13 19:03:40 00:51:27 D.REG(DOCUMENTA2) 2,87 241,71
18:12:24 19:03:28 00:51:04 D.REG(LA SENDA DESDE JESUCRISTO HASTA CONSTANTINO) / CONSTANTINO 2,87 242,21
19:06:26 19:51:27 00:45:01 EL CLUB DE LA LUCHA GASTRONOMICA DE JAMIE Y JIMMY 2,37 179,24
19:51:27 20:37:55 00:46:28 EL CHEF DEL MAR 2,29 180,13
20:41:13 21:09:39 00:28:26 80 CM / ALTURA 1,32 121,96
21:09:39 21:56:29 00:46:50 GRANDES DISEÑOS 1,88 200,64
22:00:06 23:31:12 01:31:06 SS-GB 2,85 345,27
23:33:57 24:24:32 00:50:35 DRANCY 1943,LA GRAN ENVASION 2,22 212,15
24:26:52 25:19:04 00:52:12 SHOAH,LOS OLVIDADOS DE LA HISTORIA 2,23 137,1
25:19:04 25:48:45 00:29:41 METROPOLIS / EN ARCO PERU 0,82 31,19
25:48:45 26:29:59 00:41:14 FESTIVALES DE VERANO / HEINEKEN JAZZALDIA 0,49 13,44
Cuatro
Inicio Fin Dur Emisión Share Miles
02:30:00 04:00:51 01:30:51 CUARTO MILENIO 14,96 215,45
04:00:55 05:31:05 01:30:10 LA TIENDA EN CASA 12,21 82,77
05:31:11 06:01:38 00:30:27 PURO CUATRO 8,03 46,42
06:01:38 06:25:27 00:23:49 PURO CUATRO LIVE 5,15 25,39
06:25:27 06:52:05 00:26:38 PURO CUATRO LIVE 3,04 16,53
06:52:05 06:59:57 00:07:52 PURO CUATRO 2,01 11,7
06:59:57 07:38:30 00:38:33 SURFEROS TV 1,71 12,31
07:38:40 08:51:49 01:13:09 GYM TONY XS 2,76 30,56
08:51:59 09:49:51 00:57:52 EL CONCURSO DEL AÑO 3,71 73,23
09:50:01 10:45:00 00:54:59 ALERTA COBRA / FLASHBACK 5,56 141,89
10:45:00 11:43:44 00:58:44 ALERTA COBRA / BAJO EL FUEGO 5,19 154,93
11:43:44 12:42:17 00:58:33 ALERTA COBRA / MIL MUERTES 4,59 166,3
12:44:47 13:58:08 01:13:21 MUJERES Y HOMBRES Y VICEVERSA 5,55 291,34
13:58:28 14:59:01 01:00:33 EL CONCURSO DEL AÑO 5,53 498,76
14:59:11 15:28:30 00:29:19 NOTICIAS CUATRO DEPORTES 6,51 722,07
15:28:30 15:44:42 00:16:12 DEPORTES CUATRO 3,13 352,06
15:44:52 16:59:31 01:14:39 TODO ES MENTIRA 3,39 379,25
16:59:31 17:31:49 00:32:18 TODO ES MENTIRA BIS 3,79 393,45
17:32:09 20:00:25 02:28:16 CUATRO AL DIA 2,94 247,96
20:00:25 20:14:17 00:13:52 CUATRO AL DIA A LAS 20H 3,1 238,49
20:25:00 20:31:25 00:06:25 DEPORTES CUATRO NOCHE 2,65 215,96
20:31:35 21:26:47 00:55:12 VEN A CENAR CONMIGO 3,69 344,82
21:33:34 22:46:36 01:13:02 FIRST DATES 8,88 1058,72
22:47:51 24:51:53 02:04:02 CINE CUATRO / CAOS 10,34 1021,98
24:52:03 25:39:58 00:47:55 NCIS:LOS ANGELES / CLARO SOL BRILLA YA 7,11 333,12
25:39:58 26:26:00 00:46:02 NCIS:LOS ANGELES / BAJO PRESION 7,49 219,29
Telecinco
Inicio Fin Dur Emisión Share Miles
02:30:00 02:37:19 00:07:19 MEJOR LLAMA A KIKO 1,25 27,24
02:37:19 03:16:39 00:39:20 MIRAMIMUSICA 0,63 10,54
03:16:39 03:55:45 00:39:06 MIRAMIMUSICA 0,85 9,73
03:55:45 04:33:48 00:38:03 MIRAMIMUSICA 1,69 13,66
04:33:48 05:12:31 00:38:43 MIRAMIMUSICA 1,5 9,51
05:12:31 05:51:24 00:38:53 MIRAMIMUSICA 1,64 9,45
05:51:24 06:30:01 00:38:37 MIRAMIMUSICA 2,86 14,71
06:30:01 06:55:13 00:25:12 MIRAMIMUSICA 1,57 8,73
07:00:07 07:17:21 00:17:14 INFORMATIVO T5 MATINA 3,03 20,61
07:17:31 07:22:34 00:05:03 DEPORTES MATINAL 6,98 51,21
07:31:03 07:50:37 00:19:34 INFORMATIVO T5 MATINA 9,71 75,74
07:58:33 08:55:46 00:57:13 INFORMATIVO T5 MATINA 12,77 158,48
09:00:21 13:28:35 04:28:14 EL PROGRAMA DEL VERANO 17,36 545,83
13:28:35 15:00:14 01:31:39 YA ES MEDIODIA 10,92 885,76
15:00:14 15:38:48 00:38:34 INFORMATIVOS T5 15:00 11,68 1301,83
15:38:48 15:44:19 00:05:31 DEPORTES 15:00 10,37 1161,72
15:59:31 16:55:27 00:55:56 SALVAME LIMON 11,04 1240,8
16:55:27 20:05:53 03:10:26 SALVAME NARANJA 16,53 1454,03
20:05:53 21:10:11 01:04:18 PASAPALABRA 18,01 1541,96
21:10:56 21:42:12 00:31:16 INFORMATIVOS T5 21:00 17,24 1793,29
21:59:01 22:04:32 00:05:31 DEPORTES 21:00 7,57 893,09
22:10:16 22:49:06 00:38:50 ¡TOMA SALAMI! 7,26 901,64
22:49:26 23:37:11 00:47:45 LA TRAVESIA(THE CROSSING) / EL LARGO MAÑANA 6,38 750,98
23:37:11 24:33:01 00:55:50 LA TRAVESIA(THE CROSSING) / LA ESPERANZA SONRIE DESDE EL UMBRAL 7,08 652,74
24:33:11 25:20:45 00:47:34 QUANTICO / NINGUN LUGAR ES TU HOGAR 4,89 287,27
25:20:45 26:09:39 00:48:54 QUANTICO / EL ARTE DE LA GUERRA 5,43 187,06
26:13:49 26:28:57 00:15:08 LA BOUTIQUE DE LA TIENDA EN CASA 3,15 77,38
La Sexta
Inicio Fin Dur Emisión Share Miles
02:30:00 02:55:26 00:25:26 LAS PRIMERAS 48 HORAS / DISPARA Y CORRE-AUTOPISTA SOLITARIA 3,36 66,23
02:55:26 05:35:45 02:40:19 MINUTOS MUSICALES 1,5 13,62
05:35:45 06:07:43 00:31:58 EN CLAVE DE NOCHE 0,86 4,8
06:07:43 06:45:42 00:37:59 EN CLAVE DE NOCHE 0,1 0,5
06:45:42 07:21:31 00:35:49 EN CLAVE DE NOCHE 0,15 0,95
07:21:31 07:50:00 00:28:29 UNICOS 0,69 5,33
07:50:10 08:40:49 00:50:39 ¿QUIEN VIVE AHI? 2,37 26,02
08:40:49 09:26:03 00:45:14 ¿QUIEN VIVE AHI? 1,82 31,61
09:26:13 10:11:38 00:45:25 LAS PRIMERAS 48 HORAS / GRAVEYARD 2,67 61,04
10:11:38 11:08:37 00:56:59 LAS PRIMERAS 48 HORAS / LA CHICA QUE SABIA DEMASIADO-EL GUARDIAN 4,03 109,27
11:08:37 12:36:15 01:27:38 AL ROJO VIVO:PREVIO 8,06 273,37
12:36:15 14:17:54 01:41:39 AL ROJO VIVO 11,94 671,1
14:17:54 14:50:44 00:32:50 LA SEXTA NOTICIAS 14H 12,37 1168,53
14:59:07 15:23:23 00:24:16 LA SEXTA NOTICIAS:JUGONES 6,56 721,93
15:23:23 15:28:53 00:05:30 JUGONES:EL ANALISIS 5,5 628,2
15:34:24 15:39:42 00:05:18 LA SEXTA METEO 3,04 342,36
15:45:15 17:23:13 01:37:58 ZAPEANDO 6,65 732,74
17:23:13 17:50:15 00:27:02 MAS VALE TARDE:AVANCE 5,3 528,16
17:50:15 20:00:58 02:10:43 MAS VALE TARDE 7,63 627,74
20:00:58 20:44:08 00:43:10 LA SEXTA NOTICIAS 20H 8,92 715,16
20:56:17 21:06:36 00:10:19 ESTACION LA SEXTA 4,66 444,92
21:06:36 21:22:26 00:15:50 LA SEXTA DEPORTES 2 4,96 495,16
21:37:57 22:44:43 01:06:46 EL INTERMEDIO:SUMMER TIME 4,39 525,07
22:45:03 25:06:55 02:21:52 EL TAQUILLAZO / SPOTLIGHT 5,96 565,21
25:07:05 26:29:59 01:22:54 CINE / MENTIRAS Y TRAICION 4,32 147,76
Neox
Inicio Fin Dur Emisión Share Miles
02:30:00 02:45:52 00:15:52 PADRE MADE IN USA 4,07 84,32
02:46:02 04:15:46 01:29:44 CANALBINGO.ES 1,29 15,86
04:15:46 05:21:24 01:05:38 MINUTOS MUSICALES 0,93 6,14
05:21:24 05:44:56 00:23:32 UNICOS 0,7 4,04
05:44:56 06:14:45 00:29:49 UNICOS 0,58 3,11
06:14:45 07:01:13 00:46:28 BESTIAL 2,13 11,54
07:01:13 10:39:20 03:38:07 NEOX KIDZ 2,08 33,1
07:02:29 07:09:57 00:07:28 PUCCA 3,66 24,24
07:13:40 07:19:30 00:05:50 STELLA 3,07 22,44
07:19:30 07:41:12 00:21:42 ALVIN Y LAS ARDILLAS(3D) 3,05 22,95
07:41:12 07:52:20 00:11:08 SQUISH 1,36 10,82
07:55:31 08:06:01 00:10:30 LLUVIA DE ALBONDIGAS 0,45 4,19
08:06:01 08:16:11 00:10:10 LLUVIA DE ALBONDIGAS 0,83 8,75
08:19:57 08:40:43 00:20:46 POKEMON DP SINNOH LEAGUE VICTORS 1,24 15,8
08:43:44 09:03:52 00:20:08 POKEMON DP SINNOH LEAGUE VICTORS 2,09 33,25
09:03:52 09:23:58 00:20:06 POKEMON DP SINNOH LEAGUE VICTORS 2,2 42,07
09:27:30 09:47:50 00:20:20 POKEMON DP SINNOH LEAGUE VICTORS 2,47 53,67
09:51:21 10:11:42 00:20:21 POKEMON DP SINNOH LEAGUE VICTORS 1,76 42,61
10:15:13 10:35:38 00:20:25 POKEMON DP SINNOH LEAGUE VICTORS 2,5 65,49
10:39:20 11:01:40 00:22:20 THE MIDDLE 3,36 93,82
11:01:40 11:27:40 00:26:00 THE MIDDLE 1,6 46,7
11:27:40 11:53:16 00:25:36 THE MIDDLE 1,31 43,36
11:53:26 12:20:32 00:27:06 PRINCIPE DE BEL AIR 1,5 52,86
12:20:32 12:45:52 00:25:20 PRINCIPE DE BEL AIR 2,31 90,09
12:45:52 13:06:24 00:20:32 PRINCIPE DE BEL AIR 2,32 100,4
13:06:24 13:33:31 00:27:07 PRINCIPE DE BEL AIR 2,76 140,3
13:33:51 13:59:32 00:25:41 LOS SIMPSONS 2,55 160,89
13:59:32 14:26:46 00:27:14 LOS SIMPSONS 3,61 293,08
14:26:46 14:52:24 00:25:38 LOS SIMPSONS 3,92 381,01
14:52:24 15:15:46 00:23:22 LOS SIMPSONS 4,2 454,7
15:15:46 15:35:36 00:19:50 LOS SIMPSONS 3,56 401,65
15:35:56 16:02:39 00:26:43 FRIENDS 2,61 292,12
16:02:39 16:31:15 00:28:36 FRIENDS 2,86 325,79
16:31:15 16:57:56 00:26:41 FRIENDS 2,38 263,43
16:58:16 17:22:21 00:24:05 BIG BANG 2,5 262,23
17:22:21 17:41:37 00:19:16 BIG BANG 3,33 334,76
17:41:37 18:05:41 00:24:04 BIG BANG 3,6 346,61
18:05:41 18:33:07 00:27:26 BIG BANG 3,59 325,03
18:33:07 18:53:36 00:20:29 BIG BANG 3,79 311,63
18:53:46 19:19:01 00:25:15 MODERN FAMILY 2,87 219,83
19:19:01 19:39:29 00:20:28 MODERN FAMILY 2,64 198,72
19:39:29 20:05:00 00:25:31 MODERN FAMILY 2,84 214,62
20:05:10 20:25:19 00:20:09 DOS HOMBRES Y MEDIO / ESO ERA SALIVA,ALAN 2,65 207,48
20:25:19 20:53:37 00:28:18 DOS HOMBRES Y MEDIO / PARA COMERNOSLAS CON LOS GORROS PUESTOS 2,28 193,14
20:53:37 21:19:40 00:26:03 DOS HOMBRES Y MEDIO / UNA VIEJA LLAMA CON UNA NUEVA MECHA 2,4 233,17
21:20:00 21:44:37 00:24:37 BIG BANG 2,22 236,46
21:44:37 22:11:47 00:27:10 BIG BANG 2,1 244,52
22:11:47 22:38:13 00:26:26 BIG BANG 2,41 297,57
22:38:33 22:58:40 00:20:07 PADRE DE FAMILIA 2,71 337,11
22:58:40 23:18:19 00:19:39 PADRE DE FAMILIA 3,04 361,23
23:18:19 23:45:04 00:26:45 PADRE DE FAMILIA 2,6 288,57
23:45:04 24:11:52 00:26:48 PADRE DE FAMILIA 2,7 261,31
24:11:52 24:42:13 00:30:21 PADRE DE FAMILIA 2,66 208,18
24:42:13 25:01:51 00:19:38 PADRE DE FAMILIA 3,61 226,85
25:01:51 25:30:18 00:28:27 PADRE DE FAMILIA 4,95 228,52
25:30:18 25:49:54 00:19:36 PADRE DE FAMILIA 5,84 208,36
25:49:54 26:09:34 00:19:40 PADRE DE FAMILIA 6,65 199,51
26:09:34 26:29:28 00:19:54 PADRE DE FAMILIA 6,8 170,19
Nova
Inicio Fin Dur Emisión Share Miles
02:30:00 02:36:02 00:06:02 MADRE(ANNE) 3,89 85,17
02:36:15 03:16:25 00:40:10 LEY Y ORDEN:UNIDAD DE VICTIMAS ESPECIALES / CARGA PATRIMONIAL 3,84 64,78
03:16:25 03:49:11 00:32:46 LEY Y ORDEN:UNIDAD DE VICTIMAS ESPECIALES / BUSCANDO MELANCOLIA 3,74 44,33
03:49:11 04:34:27 00:45:16 LEY Y ORDEN:UNIDAD DE VICTIMAS ESPECIALES 4,23 35,16
04:34:27 05:18:22 00:43:55 MINUTOS MUSICALES 2,98 18,66
05:18:22 05:51:03 00:32:41 EN CLAVE DE NOCHE 1,42 8,21
05:51:03 06:15:07 00:24:04 EN CLAVE DE NOCHE 1,3 6,84
06:15:07 07:25:25 01:10:18 NOTICIAS DE LA MAÑANA 3,57 21,25
07:25:25 07:56:35 00:31:10 HOY COCINAS TU / QUICHE DE VERDURAS CON CREMA DE CALABAZA 3,42 26,93
07:56:35 08:30:10 00:33:35 HOY COCINAS TU / ENSALADA TEMPLADA DE PESCADO 1,1 11,81
08:30:10 09:35:10 01:04:60 JOYASTV 1,01 17,37
09:43:17 09:58:25 00:15:08 GALERIA DEL COLECCIONISTA 0,69 15,91
09:58:25 10:28:34 00:30:09 TOP GALERIA 0,59 15,01
10:31:58 12:09:03 01:37:05 EL VUELO DE LA VICTORIA 1,11 34,03
12:09:03 13:40:09 01:31:06 SIN TU MIRADA 1,07 47,54
13:40:09 14:30:46 00:50:37 MAR DE AMOR 1,14 85,77
14:30:56 15:08:56 00:38:00 KARLOS ARGUIÑANO EN TU COCINA / CREMA FRIA DE MANGO Y CALABACIN CON CANELON DE BONITO 1,44 147,65
15:09:16 16:57:45 01:48:29 ELIF 3,89 435,98
16:58:09 18:30:29 01:32:20 YO SOY BETTY,LA FEA 2,55 250,61
18:30:39 19:30:42 01:00:03 MI MARIDO TIENE+FAMILIA 1,44 113,53
19:30:42 20:46:44 01:16:02 AMOR PROHIBIDO 2,03 159,6
20:46:44 21:29:55 00:43:11 MEDCEZIR 2,79 271,01
21:30:09 21:40:45 00:10:36 EL SECRETO DE FERIHA 3,18 343,69
21:40:45 22:43:42 01:02:57 EL SECRETO DE FERIHA 2,91 349,5
22:43:46 24:31:04 01:47:18 CINE SUPERNOVA / UN FINAL INESPERADO 2,74 288,64
24:31:04 25:56:53 01:25:49 CINE / ENCUENTRO CON EL DESTINO 2,25 112,13
25:56:53 26:29:59 00:33:06 CINE / SECRETOS ENTERRADOS 2,84 75,16
Mega
Inicio Fin Dur Emisión Share Miles
02:30:00 02:42:53 00:12:53 EL CHIRINGUITO DE JUGONES 5,3 111,83
02:43:21 03:37:20 00:53:59 EQUIPO DE INVESTIGACION / EL PODER DE LA PACA 4,66 68,46
03:39:22 04:29:14 00:49:52 EQUIPO DE INVESTIGACION / SE BUSCA:PELOPINCHO VIVO O MUERTO 4,58 40,63
04:31:17 05:18:12 00:46:55 VIDAS ANONIMAS 3,71 23,43
05:18:12 06:04:36 00:46:24 VIDAS ANONIMAS 3,42 19,49
06:04:36 06:47:07 00:42:31 VIDAS ANONIMAS 3,55 18,31
06:47:07 07:20:52 00:33:45 VIDAS ANONIMAS 2,31 14,99
07:20:52 07:48:53 00:28:01 EL CHIRINGUITO DE JUGONES:AVANCE 2,78 21,27
07:48:53 10:16:12 02:27:19 EL CHIRINGUITO DE JUGONES 1,66 28,37
10:16:22 10:43:05 00:26:43 LA CASA DE EMPEÑOS 0,52 13,88
10:43:05 11:22:55 00:39:50 LA CASA DE EMPEÑOS 1,61 45,69
11:22:55 11:41:37 00:18:42 LA CASA DE EMPEÑOS 1,31 42,25
11:41:57 12:28:16 00:46:19 CAZATESOROS / A LA CAZA DEL SUPERHEROE 1,51 53,21
12:28:16 13:23:02 00:54:46 CAZATESOROS / O EN MI CASA O EN EL MUSEO 1,72 74,93
13:23:22 13:52:27 00:29:05 ¿QUIEN DA MAS? / VIVA SAN FRANCISCO 0,98 57,15
13:52:27 14:19:55 00:27:28 ¿QUIEN DA MAS? / EL RETORNO DEL REY DE MONTEBELLO 1,49 112,65
14:19:55 14:40:29 00:20:34 ¿QUIEN DA MAS? / OLE 1,23 113,7
14:40:29 15:14:14 00:33:45 ¿QUIEN DA MAS? / YO,YO MISMO Y IVY 0,64 67,84
15:14:34 15:43:26 00:28:52 RESTAURANTE INDISCRETO 0,68 76,37
15:43:26 16:03:42 00:20:16 RESTAURANTE INDISCRETO 1,77 197,32
16:03:42 16:23:56 00:20:14 RESTAURANTE INDISCRETO 1,8 205,01
16:23:56 16:58:37 00:34:41 RESTAURANTE INDISCRETO 1,36 150,53
16:58:47 17:18:54 00:20:07 LA CASA DE EMPEÑOS 1,55 163,26
17:18:54 17:52:47 00:33:53 LA CASA DE EMPEÑOS 1,03 102,64
17:52:47 18:38:14 00:45:27 LA CASA DE EMPEÑOS 1,87 170,96
18:38:14 19:34:40 00:56:26 CAZATESOROS / MIKE Y LA MARTIN 1,73 134,03
19:34:40 20:22:32 00:47:52 CAZATESOROS / REGLAS NO ESCRITAS 1,63 124,59
20:22:42 20:50:49 00:28:07 ¿QUIEN DA MAS? / MAL DE ALTURA 1,87 157,1
20:50:49 21:24:46 00:33:57 ¿QUIEN DA MAS? / PARA PASAR UN BUEN RATO,LLAMA A IVY 1,48 144,25
21:24:46 21:45:19 00:20:33 ¿QUIEN DA MAS? 1,84 197,66
21:45:19 22:12:23 00:27:04 ¿QUIEN DA MAS? / 666,EL NUMERO DE LA SUERTE 1,95 226,98
22:12:43 23:05:09 00:52:26 FORJADO A FUEGO / EL BAGH NAKH 1,74 214,71
23:05:09 23:58:10 00:53:01 FORJADO A FUEGO 2,2 242,07
23:58:45 24:31:20 00:32:35 EL CHIRINGUITO DE JUGONES:AVANCE 2,5 216,26
24:31:20 26:29:59 01:58:39 EL CHIRINGUITO DE JUGONES 4,57 197,98
Atreseries
Inicio Fin Dur Emisión Share Miles
02:31:43 03:44:06 01:12:23 CON EL CULO AL AIRE 3,96 60,58
03:44:06 04:51:11 01:07:05 CON EL CULO AL AIRE 11,15 90,22
04:51:11 06:01:19 01:10:08 CON EL CULO AL AIRE 13,28 77,03
06:05:13 06:10:28 00:05:15 LA CHICA DE LAS SERIES 4,59 22,35
06:15:39 07:13:01 00:57:22 MANOS A LA OBRA / PATRIMONIO DE LA HUMANIDAD 4,56 25,93
07:25:11 07:30:37 00:05:26 LA CHICA DE LAS SERIES 3,37 25,26
08:00:11 09:33:36 01:33:25 DOCTOR MATEO / DE COMO LOS HOMBRES TIENEN LO QUE TIENEN Y VALEN PARA LO QUE VALEN Y PUNTO 2,38 36,07
09:33:36 11:03:39 01:30:03 EL INTERNADO / ESCRITO EN LAS ESTRELLAS 1,07 27,24
11:03:39 12:16:01 01:12:22 AQUI NO HAY QUIEN VIVA / ERASE UN ESCANDALO 1 32,5
12:16:01 13:51:30 01:35:29 AQUI NO HAY QUIEN VIVA / ERASE UN DISCO-PUB-VIDEOCLUB 1,52 71,96
13:51:30 14:40:24 00:48:54 HOUSE / LA ELECCION 0,81 66,58
14:40:24 15:42:28 01:02:04 HOUSE / BAGAJE 0,75 81,74
15:42:28 16:24:57 00:42:29 HOUSE 1,12 126,74
16:24:57 17:20:15 00:55:18 LAS REGLAS DEL JUEGO / EL GOLPE MILAGROSO 0,51 55,54
17:20:15 18:15:02 00:54:47 LAS REGLAS DEL JUEGO / EL GOLPE DEL BANCO 0,69 67,35
18:15:02 19:08:02 00:52:60 LAS REGLAS DEL JUEGO / EL GOLPE TELEVISIVO 0,95 79,41
19:08:02 20:02:01 00:53:59 LAS REGLAS DEL JUEGO / EL GOLPE DE LA CHISTERA 2,01 152,06
20:02:01 20:49:27 00:47:26 LEY Y ORDEN:UNIDAD DE VICTIMAS ESPECIALES / DAÑOS COLATERALES 1,56 126,19
20:49:27 21:42:09 00:52:42 LEY Y ORDEN:UNIDAD DE VICTIMAS ESPECIALES 1,79 178,76
21:42:09 22:39:28 00:57:19 LEY Y ORDEN:UNIDAD DE VICTIMAS ESPECIALES 2,13 255,42
22:39:38 23:20:34 00:40:56 CROSSING JORDAN / INGRESO CADAVER 2,04 247,66
23:20:34 24:23:29 01:02:55 CROSSING JORDAN / ACCIDENTE 1,79 179,09
24:23:29 25:09:05 00:45:36 CROSSING JORDAN / EL AMANECER DE UN NUEVO DIA 2,24 148,39
25:09:05 25:54:43 00:45:38 CROSSING JORDAN / LAZOS QUE UNEN 2,07 80,98
25:54:43 26:29:59 00:35:16 CROSSING JORDAN / LA BELLA DURMIENTE 1,41 37,88
Ten
Inicio Fin Dur Emisión Share Miles
02:30:00 04:00:09 01:30:09 LA NOCHE DE... 0,26 3,81
04:00:09 06:00:04 01:59:55 LA NOCHE DE... 0,42 2,75
06:00:04 11:00:04 04:59:60 WWW.BOTOPRO.COM 0,07 0,97
11:04:20 11:31:42 00:27:22 O EL PERRO O YO 0,06 1,86
11:31:42 11:54:42 00:23:00 O EL PERRO O YO 0,23 7,62
11:54:42 12:22:35 00:27:53 O EL PERRO O YO 0,1 3,7
12:22:35 12:44:46 00:22:11 O EL PERRO O YO 0,1 3,74
12:44:46 13:11:47 00:27:01 O EL PERRO O YO 0,02 0,85
13:11:47 14:07:10 00:55:23 MEDICOPTER / FUEGOS ARTIFICIALES 0,04 2,63
14:07:10 15:02:13 00:55:03 MEDICOPTER / MAL MOMENTO,MAL LUGAR 0,04 4,21
15:02:13 15:57:03 00:54:50 FATAL VOWS 0,26 28,62
15:57:03 16:47:21 00:50:18 FATAL VOWS 0,3 34,06
16:47:41 17:39:22 00:51:41 ESTA CASA ERA UNA RUINA(EDICION AMERICANA) 0,12 12,93
17:39:42 18:31:39 00:51:57 ESTA CASA ERA UNA RUINA(EDICION AMERICANA) 0,12 11,35
18:31:39 19:22:52 00:51:13 ESTA CASA ERA UNA RUINA(EDICION AMERICANA) 0,15 11,68
19:22:52 20:09:50 00:46:58 ESTA CASA ERA UNA RUINA(EDICION AMERICANA) 0,22 16,32
20:09:50 21:01:15 00:51:25 FATAL VOWS 0,33 28,05
21:01:15 21:54:02 00:52:47 FATAL VOWS 0,33 34,56
21:54:02 22:46:03 00:52:01 MUJERES ASESINAS 0,73 89,81
22:46:03 23:35:03 00:48:60 MUJERES ASESINAS 1,1 129,82
23:35:03 24:30:41 00:55:38 MUJERES ASESINAS 1,07 100,2
24:30:41 25:26:10 00:55:29 FATAL VOWS 1,16 66,86
25:30:33 26:29:59 00:59:26 LA NOCHE DE... 0,42 12,6
Be mad
Inicio Fin Dur Emisión Share Miles
02:30:00 02:53:26 00:23:26 CALLEJEROS / BARRIO DE SAN LAZARO 1,45 29,01
02:53:26 03:27:57 00:34:31 CALLEJEROS / LA NAVIDAD 3,47 49,72
03:27:57 04:03:09 00:35:12 CALLEJEROS / BENIDORM 3,43 35,98
04:03:09 04:52:30 00:49:21 CALLEJEROS VIAJEROS / DUBAI 1,98 14,76
04:52:30 05:39:08 00:46:38 CALLEJEROS VIAJEROS 2,94 17
05:39:08 06:05:09 00:26:01 CALLEJEROS VIAJEROS 0,98 5,55
06:05:09 07:06:17 01:01:08 LOS SIMULADORES / EL JOVEN SIMULADOR 1,14 6,19
07:06:17 07:47:04 00:40:47 LOS SIMULADORES / IMPOTENTE 0,52 3,87
07:47:04 07:52:26 00:05:22 MALAS PULGAS 0,6 4,86
07:52:26 09:14:45 01:22:19 PLANETA CALLEJA / RISTO MEJIDE 0,81 10,81
09:14:45 10:13:27 00:58:42 PLANETA CALLEJA / DAVID BISBAL 0,76 16,97
10:13:27 11:03:49 00:50:22 FRANK DE LA JUNGLA 0,48 13,1
11:03:49 12:13:38 01:09:49 FRANK DE LA JUNGLA 0,56 18,11
12:13:38 12:50:02 00:36:24 MEJOR LLAMA A KIKO 0,32 12,3
12:50:02 13:49:32 00:59:30 REX,UN POLICIA DIFERENTE / LA CARRERA DE LA MUERTE 0,5 25,76
13:49:32 14:48:28 00:58:56 REX,UN POLICIA DIFERENTE / MIEDO EN LA CIUDAD 0,44 36,99
14:48:28 15:46:22 00:57:54 REX,UN POLICIA DIFERENTE / MUERTE EN EL MUSEO 0,67 73,86
15:46:22 16:40:07 00:53:45 REX,UN POLICIA DIFERENTE / PASION MORTAL 0,71 79,99
16:40:07 17:42:20 01:02:13 EL ENCANTADOR DE PERROS 0,4 42,38
17:42:20 18:43:50 01:01:30 EL ENCANTADOR DE PERROS 0,53 48,38
18:43:50 19:50:58 01:07:08 EL ENCANTADOR DE PERROS 0,41 31,66
19:50:58 20:49:39 00:58:41 EL ENCANTADOR DE PERROS 0,6 47,82
20:49:49 21:52:40 01:02:51 PERDIDOS 0,56 57,74
21:52:40 22:43:02 00:50:22 PERDIDOS 0,51 62,6
22:43:02 23:29:12 00:46:10 PERDIDOS 0,67 80,6
23:29:12 24:21:14 00:52:02 CALLEJEROS / EMPLEADOS DEL HOGAR 0,95 93,03
24:21:14 24:59:29 00:38:15 CALLEJEROS / NUMEROS ROJOS 1,46 102,91
24:59:29 25:40:05 00:40:36 CALLEJEROS / LA TERMINAL 1,4 62,46
25:40:05 26:14:47 00:34:42 MEJOR LLAMA A KIKO 0,42 12,79
26:14:47 26:29:59 00:15:12 CALLEJEROS / ORDEN DE ALEJAMIENTO 0,61 14,88
Boing
Inicio Fin Dur Emisión Share Miles
02:33:06 02:42:53 00:09:47 MR.BEAN-DIBUJOS 1,28 26,62
02:42:53 02:53:22 00:10:29 MR.BEAN-DIBUJOS 1,39 25,73
02:53:22 03:03:43 00:10:21 MR.BEAN-DIBUJOS 1,1 17,71
03:03:53 03:14:43 00:10:50 MI CABALLERO Y YO 1,24 17,71
03:14:43 03:25:34 00:10:51 MI CABALLERO Y YO 0,82 10,78
03:25:34 03:36:24 00:10:50 MI CABALLERO Y YO 0,99 11,92
03:36:34 03:46:19 00:09:45 MR.BEAN-DIBUJOS 1,06 11,64
03:46:19 03:57:04 00:10:45 MR.BEAN-DIBUJOS 0,94 9,24
03:57:14 04:18:08 00:20:54 NINJAGO 1,36 11,41
04:18:18 04:39:11 00:20:53 NINJAGO 1,76 13,12
04:39:21 04:49:31 00:10:10 MR.BEAN-DIBUJOS 1,82 12,32
04:49:31 05:00:17 00:10:46 MR.BEAN-DIBUJOS 2,37 14,84
05:03:16 05:14:06 00:10:50 MI CABALLERO Y YO 3 16,9
05:14:06 05:24:57 00:10:51 MI CABALLERO Y YO 2,16 12,32
05:24:57 05:35:47 00:10:50 MI CABALLERO Y YO 2,14 12,32
05:35:57 05:46:47 00:10:50 CHOWDER 2,16 12,53
05:46:47 05:57:50 00:11:03 CHOWDER 2,22 12,94
06:00:12 06:09:55 00:09:43 MR.BEAN-DIBUJOS 3,53 17,71
06:09:55 06:20:21 00:10:26 MR.BEAN-DIBUJOS 3,97 19,8
06:20:21 06:30:08 00:09:47 MR.BEAN-DIBUJOS 3,2 15,59
06:30:18 06:35:50 00:05:32 MIXELS 2,92 14,89
06:37:14 06:48:04 00:10:50 MI CABALLERO Y YO 1,2 6,92
06:48:04 06:58:55 00:10:51 MI CABALLERO Y YO 1,29 7,42
07:00:11 07:10:57 00:10:46 MI CABALLERO Y YO 1,56 10,29
07:10:57 07:21:47 00:10:50 MI CABALLERO Y YO 1,86 13,5
07:26:54 07:37:41 00:10:47 MR.BEAN-DIBUJOS 2,97 22,55
07:37:41 07:47:56 00:10:15 MR.BEAN-DIBUJOS 2,86 22,4
07:49:11 07:54:37 00:05:26 NEW LOONEY TUNES 2,59 21,37
07:54:37 07:59:47 00:05:10 NEW LOONEY TUNES 2,18 19,32
07:59:47 08:05:12 00:05:25 NEW LOONEY TUNES 2,38 22,46
08:05:12 08:10:14 00:05:02 NEW LOONEY TUNES 2,47 24,46
08:13:20 08:18:45 00:05:25 NEW LOONEY TUNES 1,8 20,31
08:18:45 08:23:55 00:05:10 NEW LOONEY TUNES 1,68 19,55
08:23:55 08:29:17 00:05:22 NEW LOONEY TUNES 1,33 16,46
08:29:17 08:34:27 00:05:10 NEW LOONEY TUNES 1,07 13,65
08:39:13 08:50:12 00:10:59 EL ASOMBROSO MUNDO DE GUMBALL 1,36 19,38
08:50:12 09:01:12 00:11:00 EL ASOMBROSO MUNDO DE GUMBALL 2,76 44,45
09:02:37 09:13:39 00:11:02 EL ASOMBROSO MUNDO DE GUMBALL 2,98 54,9
09:13:39 09:24:41 00:11:02 EL ASOMBROSO MUNDO DE GUMBALL 3,46 68,76
09:29:22 09:41:18 00:11:56 DORAEMON GATO COSMICO 3,42 72,91
09:41:18 09:51:52 00:10:34 DORAEMON GATO COSMICO 4,33 97,87
09:54:31 10:06:45 00:12:14 DORAEMON GATO COSMICO 4,02 97,33
10:06:45 10:17:30 00:10:45 DORAEMON GATO COSMICO 3,68 92,77
10:19:56 10:29:52 00:09:56 TEEN TITANS GO! 3,03 79,29
10:29:57 10:39:39 00:09:42 TEEN TITANS GO! 2,21 59,6
10:42:34 10:52:49 00:10:15 TEEN TITANS GO! 3,38 94,02
10:52:49 11:02:18 00:09:29 TEEN TITANS GO! 4,43 124,69
11:03:20 11:13:41 00:10:21 TEEN TITANS GO! 4,15 117,53
11:13:41 11:22:44 00:09:03 TEEN TITANS GO! 3,85 114,02
11:25:04 11:35:37 00:10:33 SOMOS OSOS 3,41 108,87
11:35:37 11:46:12 00:10:35 SOMOS OSOS 4,55 151,71
11:46:12 11:56:42 00:10:30 SOMOS OSOS 4,01 135,16
11:58:55 12:09:32 00:10:37 EL MUNDO DE CRAIG 3,78 131,87
12:09:32 12:20:09 00:10:37 EL MUNDO DE CRAIG 3,7 134,19
12:23:29 12:44:35 00:21:06 LOS THUNDERMAN 2,79 109,02
12:47:16 12:57:40 00:10:24 TEEN TITANS GO! 2,17 92,46
12:57:40 13:07:29 00:09:49 TEEN TITANS GO! 1,59 70,81
13:10:33 13:20:04 00:09:31 TEEN TITANS GO! 1,54 74,76
13:20:04 13:30:19 00:10:15 TEEN TITANS GO! 2,11 111,56
13:30:19 13:40:02 00:09:43 TEEN TITANS GO! 2,67 151,3
13:42:15 13:53:15 00:11:00 EL ASOMBROSO MUNDO DE GUMBALL 2,05 129,45
13:53:15 14:04:16 00:11:01 EL ASOMBROSO MUNDO DE GUMBALL 1,63 115,02
14:05:22 14:16:22 00:11:00 EL ASOMBROSO MUNDO DE GUMBALL 1,43 112,5
14:16:22 14:27:10 00:10:48 EL ASOMBROSO MUNDO DE GUMBALL 1,45 125,96
14:29:54 14:40:28 00:10:34 SOMOS OSOS 1,36 129,17
14:40:28 14:51:03 00:10:35 SOMOS OSOS 1,05 105,49
14:55:13 15:05:56 00:10:43 SOMOS OSOS 0,96 102,55
15:05:56 15:16:40 00:10:44 SOMOS OSOS 0,84 92,57
15:18:51 15:41:51 00:23:00 DORAEMON GATO COSMICO 0,77 87,41
15:45:24 16:06:54 00:21:30 DORAEMON GATO COSMICO 1,07 119,86
16:08:11 16:29:40 00:21:29 DORAEMON GATO COSMICO 1,34 152,8
16:33:10 16:44:10 00:11:00 EL ASOMBROSO MUNDO DE GUMBALL 0,97 107,89
16:44:10 16:55:09 00:10:59 EL ASOMBROSO MUNDO DE GUMBALL 0,93 102,73
16:58:55 17:09:39 00:10:44 CLARENCE 0,71 74,87
17:09:39 17:20:24 00:10:45 CLARENCE 0,83 86,51
17:25:01 17:35:44 00:10:43 CLARENCE 0,73 73,39
17:35:44 17:46:26 00:10:42 CLARENCE 0,85 84,24
17:50:22 18:00:57 00:10:35 EL MUNDO DE CRAIG 0,67 64,22
18:00:57 18:11:31 00:10:34 EL MUNDO DE CRAIG 0,84 78,56
18:11:31 18:22:05 00:10:34 EL MUNDO DE CRAIG 1,09 99,72
18:25:41 18:46:08 00:20:27 BEYBLADE BURST TURBO 0,77 65,06
18:47:51 18:58:01 00:10:10 TEEN TITANS GO! 0,51 40,58
18:58:01 19:08:01 00:10:00 TEEN TITANS GO! 0,32 24,31
19:08:01 19:18:27 00:10:26 TEEN TITANS GO! 0,41 31,45
19:21:29 19:43:02 00:21:33 ESPECIAL BEN 10 / TOTAL TRANSFORMATIONS 0,28 21,33
19:21:30 19:32:17 00:10:47 BEN 10 0,18 13,68
19:32:17 19:43:01 00:10:44 BEN 10 0,38 28,27
19:46:34 19:57:34 00:11:00 EL ASOMBROSO MUNDO DE GUMBALL 0,41 30,52
19:57:34 20:08:34 00:11:00 EL ASOMBROSO MUNDO DE GUMBALL 0,59 45,04
20:12:05 20:24:06 00:12:01 DORAEMON GATO COSMICO 0,47 36,91
20:24:06 20:34:52 00:10:46 DORAEMON GATO COSMICO 0,85 69,03
20:40:36 21:02:06 00:21:30 DORAEMON GATO COSMICO 0,62 56,16
21:07:58 21:17:57 00:09:59 TEEN TITANS GO! 0,65 64,65
21:17:57 21:27:53 00:09:56 TEEN TITANS GO! 0,57 57,75
21:27:53 21:37:43 00:09:50 TEEN TITANS GO! 0,66 70,22
21:43:26 22:30:00 00:46:34 WIPEOUT 1,09 129,46
22:30:00 23:15:47 00:45:47 WIPEOUT 1,18 144,55
23:17:10 23:27:45 00:10:35 HISTORIAS CORRIENTES 0,48 55,63
23:27:45 23:38:21 00:10:36 HISTORIAS CORRIENTES 0,45 49,62
23:38:21 23:48:56 00:10:35 HISTORIAS CORRIENTES 0,66 69,44
23:52:01 24:13:44 00:21:43 DRAGON BALL SUPER 1,09 102,75
24:16:18 24:27:17 00:10:59 EL ASOMBROSO MUNDO DE GUMBALL 0,8 65,81
24:27:17 24:37:58 00:10:41 EL ASOMBROSO MUNDO DE GUMBALL 0,96 72,09
24:39:35 24:50:35 00:11:00 EL ASOMBROSO MUNDO DE GUMBALL 0,94 64,07
24:50:35 25:01:15 00:10:40 EL ASOMBROSO MUNDO DE GUMBALL 1,11 65,84
25:02:31 25:13:17 00:10:46 MR.BEAN-DIBUJOS 0,28 14,11
25:13:17 25:24:08 00:10:51 MR.BEAN-DIBUJOS 0,37 16,44
25:26:02 25:46:54 00:20:52 NINJAGO 0,42 15,37
25:49:15 26:10:08 00:20:53 NINJAGO 0,18 5,46
26:11:33 26:21:56 00:10:23 MR.BEAN-DIBUJOS 0,21 5,46
26:21:56 26:29:59 00:08:03 MR.BEAN-DIBUJOS 0,4 9,37
FDF
Inicio Fin Dur Emisión Share Miles
02:30:00 03:26:13 00:56:13 LA QUE SE AVECINA / UNA SENTENCIA,UN ATENTADO A SHAKESPEARE Y UNA TIGRESA ENCERR 12,58 210,32
03:26:23 03:49:51 00:23:28 MIRAMIMUSICA 5,91 66,78
03:49:51 04:08:35 00:18:44 MIRAMIMUSICA 3,75 33,73
04:08:35 04:27:40 00:19:05 MIRAMIMUSICA 3,88 30,42
04:27:40 04:49:37 00:21:57 MIRAMIMUSICA 3,88 27,31
04:49:37 05:14:16 00:24:39 MIRAMIMUSICA 3,52 20,81
05:14:16 05:34:02 00:19:46 MIRAMIMUSICA 2,82 16,12
05:34:02 05:39:55 00:05:53 VIDEOCLIP 2,71 15,96
05:39:55 08:10:07 02:30:12 LA TIENDA EN CASA 1,18 7,71
08:10:07 08:41:40 00:31:33 I LOVE TV 1,11 13,62
08:41:40 10:00:30 01:18:50 CHIRINGUITO DE PEPE / JUDAS LLEVA PELUQUIN 2,3 45,13
10:00:30 11:04:47 01:04:17 GYM TONY 2,31 61,57
11:04:47 12:13:26 01:08:39 AIDA / BABY IN BLACK 2,75 88,77
12:13:26 13:21:11 01:07:45 AIDA / EL HOMBRE QUE SABIA DEMASIADO 2,47 103,79
13:21:11 15:10:57 01:49:46 LA QUE SE AVECINA / UNA DIVA,UN FAISAN Y UN PISO QUE CUESTA UN RIÑON 4,04 330,66
15:10:57 16:58:55 01:47:58 LA QUE SE AVECINA / UNA POLIZA PREMIUM,UN NOVIO-TIRITA Y UN MAYORISTA CON EL GENERO A LA VISTA 4,52 506,73
16:58:55 17:28:55 00:30:00 ¡TOMA SALAMI! 3,45 359,75
17:28:55 19:29:38 02:00:43 LOS SERRANO / EL PADRINO IV 1,58 137,51
19:29:38 20:00:55 00:31:17 GYM TONY XS 1,51 113,98
20:00:55 20:20:53 00:19:58 LA QUE SE AVECINA:MAKING OF 2,67 207,33
20:21:03 22:33:45 02:12:42 LA QUE SE AVECINA / UN REFERENTE PATERNO,UNA MALDICION RUMANA Y LA CAZA DEL FORNICADOR DEL TRASTERO 3,71 385,8
22:33:45 24:31:47 01:58:02 CINE / COMANCHERIA 2,34 250,74
24:31:47 26:15:24 01:43:37 LA QUE SE AVECINA / UNA SOLTERA CARROÑERA,EL URDANGARIN DE LA SELVA Y DOS PUTILL 4,34 199,02
26:15:24 26:29:59 00:14:35 LA QUE SE AVECINA / UN SOLTERO,UN YOGUR CON FIBRA Y UN NUEVO PRESIDENTE 7,84 190,52
Divinity
Inicio Fin Dur Emisión Share Miles
02:30:00 02:50:55 00:20:55 VEN A CENAR CONMIGO:GOURMET EDITION / LOLES LEON 5,46 110,12
02:50:55 04:00:02 01:09:07 VEN A CENAR CONMIGO:GOURMET EDITION / BELINDA WASHINGTON 4,25 54,07
04:00:02 06:45:16 02:45:14 LA TIENDA EN CASA 1,86 11,5
06:45:16 07:38:04 00:52:48 SURFEROS TV 1,55 10,53
07:38:04 08:38:12 01:00:08 LA BOUTIQUE DE LA TIENDA EN CASA 0,87 8,9
08:38:12 15:45:09 07:06:57 DIVINITY HOME 1,73 85,91
08:38:16 09:22:11 00:43:55 TU CASA A JUICIO:VANCOUVER 1,84 31,12
09:22:11 10:14:30 00:52:19 TU CASA A JUICIO:VANCOUVER 2,74 62,44
10:14:30 11:07:06 00:52:36 TU CASA A JUICIO:VANCOUVER 2,49 67,7
11:07:06 12:11:44 01:04:38 TU CASA A JUICIO:VANCOUVER 1,95 63,18
12:11:44 13:01:59 00:50:15 TU CASA A JUICIO:VANCOUVER 1,98 78,92
13:01:59 13:56:19 00:54:20 TU CASA A JUICIO:VANCOUVER 1,59 87,3
13:56:19 14:49:10 00:52:51 TU CASA A JUICIO:VANCOUVER 1,45 125,55
14:49:10 15:45:09 00:55:59 TU CASA A JUICIO:VANCOUVER 1,47 161,83
15:45:09 16:46:13 01:01:04 CAZAMARIPOSAS:PRIMERA EDICION 2,36 265,22
16:57:32 20:55:17 03:57:45 DIVINITY TE COMO A SERIES 1,91 165,18
16:57:33 18:01:57 01:04:24 TOTALMENTE DIVA 1,83 184,82
18:01:57 19:18:11 01:16:14 ERKENCI KUS(PAJARO SOÑADOR) 2,08 174,65
19:18:11 19:39:15 00:21:04 ERKENCI KUS(PAJARO SOÑADOR) 2,25 169,31
19:39:15 20:55:17 01:16:02 KUZEY GÜNEY:DOS HERMANOS Y UN MISMO AMOR 1,72 138,02
20:55:17 21:12:57 00:17:40 CAZAMARIPOSAS:SEGUNDA EDICION 2,25 216,65
21:12:57 23:05:45 01:52:48 DIVINITY TE COMO A SERIES 1,91 222,25
21:12:58 21:40:43 00:27:45 IÇERDE 1,98 206,7
21:40:43 22:00:23 00:19:40 IÇERDE 1,98 224,05
22:00:23 22:42:53 00:42:30 AMOR EN BLANCO Y NEGRO 1,82 224,13
22:42:53 23:05:45 00:22:52 AMOR EN BLANCO Y NEGRO 1,92 236,18
23:05:45 26:29:59 03:24:14 DIVINITY CRIME 1,85 124,59
23:05:46 24:00:05 00:54:19 THE ROOKIE 1,62 177,71
24:00:05 24:52:29 00:52:24 CASTLE / UN ABOGADO CADAVER 1,51 120,37
24:52:29 25:41:26 00:48:57 CASTLE / EL CONTACTO 2,35 109,61
25:41:26 26:29:59 00:48:33 CASTLE / VOLANDO ALTO 2,99 85,52
Energy
Inicio Fin Dur Emisión Share Miles
02:30:00 05:49:42 03:19:42 DISTRITO 8 6,61 67,13
02:30:01 03:08:59 00:38:58 C.S.I. 6,11 110,98
03:08:59 03:49:17 00:40:18 C.S.I. / YA BASTA 5,44 66,43
03:49:17 04:29:32 00:40:15 C.S.I. 6,38 53,67
04:29:32 05:09:34 00:40:02 C.S.I. / ENTRADA Y SALIDA 7,83 50,76
05:09:34 05:49:37 00:40:03 C.S.I. 9,61 55,23
05:49:42 05:56:31 00:06:49 VIDEOCLIP 5,17 30,27
05:56:31 07:11:42 01:15:11 LA TIENDA EN CASA 0,95 5,22
07:15:06 07:52:17 00:37:11 SURFEROS TV 0,17 1,31
07:52:17 08:43:49 00:51:32 CASO ABIERTO 2,51 28,33
08:43:49 09:25:29 00:41:40 CASO ABIERTO 1,94 34,07
09:25:29 10:15:11 00:49:42 C.S.I.NUEVA YORK / CONSECUENCIAS 1,69 38,8
10:15:11 11:02:49 00:47:38 C.S.I.NUEVA YORK 1,55 41,95
11:02:49 11:55:16 00:52:27 C.S.I.NUEVA YORK 1,01 31,64
11:55:16 12:50:06 00:54:50 C.S.I.NUEVA YORK 1,94 72,72
12:50:06 13:42:02 00:51:56 C.S.I. / YA BASTA 2,96 147,23
13:42:02 14:30:47 00:48:45 C.S.I. 2,05 156,37
14:30:47 15:11:02 00:40:15 C.S.I. 1,82 186,41
15:11:02 16:04:23 00:53:21 C.S.I. 2,58 289,57
16:04:23 16:59:13 00:54:50 C.S.I. 3,15 353,56
16:59:13 17:39:56 00:40:43 HAWAI 5.0 3,84 395,79
17:39:56 18:37:29 00:57:33 HAWAI 5.0 / INQUEBRANTABLES 4,58 425,1
18:37:29 19:25:55 00:48:26 CASO ABIERTO / CHICA DE PORTADA 3,01 234,98
19:25:55 20:25:08 00:59:13 CASO ABIERTO / DINERO DE LA CALLE 2,46 188,28
20:25:08 26:29:59 06:04:51 DISTRITO 8 3,1 265,18
20:25:12 21:37:42 01:12:30 THE SNIFFER 1,66 156,7
21:37:42 22:36:04 00:58:22 THE SNIFFER 2,68 317,79
22:36:04 23:32:21 00:56:17 THE SNIFFER 3,37 404,81
23:32:21 24:51:25 01:19:04 THE SNIFFER 4,16 366,88
24:51:25 25:55:56 01:04:31 THE SNIFFER 4,1 179,64
25:56:06 26:29:59 00:33:53 THE SNIFFER 3,97 105,63
Real Madrid TV
Inicio Fin Dur Emisión Share Miles
02:30:00 04:29:15 01:59:15 HOY JUGAMOS 0,32 4,11
02:30:05 04:29:07 01:59:02 HISTORIA QUE TU HICISTE / SUPERCOPA DE EUROPA 2016 0,32 4,11
04:31:20 04:56:03 00:24:43 HISTORIAS CON ALMA / CISJORDANIA 0,17 1,15
04:56:03 05:22:28 00:26:25 HISTORIAS CON ALMA / HUNGRIA 0 0
05:25:18 08:58:11 03:32:53 HOY JUGAMOS 0,29 2,3
05:27:37 07:03:53 01:36:16 FUTBOL:AMISTOSO(D) / R.MADRID B-SELECTIVO JALISCO:JUVENIL 0 0,02
07:07:26 08:58:02 01:50:36 HISTORIA QUE TU HICISTE / SUPERCOPA DE EUROPA 2017 0,43 4,39
09:00:00 09:13:35 00:13:35 APRENDE INGLES CON VAUGHAN 0 0
09:00:06 09:06:11 00:06:05 STUFF 0 0
09:06:42 09:12:56 00:06:14 STUFF 0 0
09:13:35 12:11:32 02:57:57 HOY JUGAMOS 0,32 8,69
09:17:55 10:02:08 00:44:13 FUTBOL:TORNEO ISCAR CUP(D) / R.MADRID A-BARCELONA:BENJAMIN 0,25 5,41
10:02:08 10:09:53 00:07:45 POST FUTBOL:TORNEO ISCAR CUP / R.MADRID A-BARCELONA:BENJAMIN 0,57 14,03
10:14:36 12:11:23 01:56:47 HISTORIA QUE TU HICISTE / LIGA 2016/17:MALAGA-R.MADRID,CAMPEONES DE LA LIGA 33 0,34 10,1
12:15:44 14:00:03 01:44:19 HISTORIA QUE TU HICISTE / SUPERCOPA IDA 1990/91:BARCELONA-R.MADRID 0,69 33,97
14:00:03 14:41:39 00:41:36 INFORMATIVOS REAL MADRID 0,25 21,12
14:44:51 15:36:05 00:51:14 HOY JUGAMOS 0,22 23,85
14:44:57 15:10:19 00:25:22 30 MINUTOS / R.MADRID-LIVERPOOL:LA DECIMOTERCERA CHAMPIONS LEAGUE 2017/18 0,22 23,72
15:16:16 15:35:58 00:19:42 15 MINUTOS / JUVENTUS-R.MADRID:LA DUODECIMA CHAMPIONS LEAGUE 2016/17 0,21 23,59
15:41:42 17:18:24 01:36:42 CINE / OPERACION CANADA 0,15 16,51
17:22:34 17:29:46 00:07:12 INFORMATIVOS REAL MADRID 0,16 15,82
17:32:58 20:26:00 02:53:02 HOY JUGAMOS 0,16 13,42
17:33:04 19:30:00 01:56:56 HISTORIA QUE TU HICISTE / FINAL MUNDIAL DE CLUBES 2014:R.MADRID-SAN LORENZO 0,16 13,79
18:27:25 18:33:16 00:05:51 INFORMATIVOS REAL MADRID 0,1 8,88
19:34:56 20:21:38 00:46:42 FUTBOL 7:LA LIGA PROMISES(D) / BARCELONA-R.MADRID 0,15 11,61
20:30:13 21:21:00 00:50:47 INFORMATIVOS REAL MADRID 0,09 8,26
21:32:06 22:29:52 00:57:46 90 MINUTI 0,58 68,14
22:30:32 24:09:18 01:38:46 CINE / MIRANDA(2002) 0,26 29,09
24:14:03 26:08:46 01:54:43 HOY JUGAMOS 0,27 13,98
24:14:09 25:54:36 01:40:27 HISTORIA QUE TU HICISTE / LIGA 1999/00 R.MADRID-BARCELONA:GOLEADA EN EL CLASICO 0,26 14,17
25:54:43 26:08:37 00:13:54 15 MINUTOS / R.MADRID-BARCELONA:FINAL COPA DEL REY 2013/14 0,43 12,61
26:08:46 26:29:59 00:21:13 90 MINUTI 0,35 8,69
DMax
Inicio Fin Dur Emisión Share Miles
02:30:12 03:13:56 00:43:44 CURIOSIDADES DE LA TIERRA 5,01 88,61
03:15:36 03:59:46 00:44:10 FUGAS DE PRISION / LA CONSPIRACION DE CONNECTICUT 8,38 94,44
03:59:46 04:43:55 00:44:09 FUGAS DE PRISION / FUGA DE INDIAN RIVER 7,98 61,72
04:45:15 05:12:02 00:26:47 CONTROL DE FRONTERAS:ESPAÑA 7,95 48,15
05:12:07 05:34:03 00:21:56 CONTROL DE FRONTERAS:ESPAÑA 8,02 45,77
05:34:03 05:56:06 00:22:03 CONTROL DE FRONTERAS:ESPAÑA 9,7 56,68
06:00:14 06:44:24 00:44:10 MEGATRASLADOS / UN SUBMARINO COLOSAL 12,59 64,48
06:44:29 07:28:24 00:43:55 MEGATRASLADOS / CIUDADES TITANICAS 8,2 53,83
07:30:04 07:52:25 00:22:21 ¿COMO LO HACEN? 5,25 41,02
07:52:30 08:14:27 00:21:57 ¿COMO LO HACEN? 3,07 29,3
08:14:32 08:36:51 00:22:19 ¿COMO LO HACEN? 1,95 23,84
08:36:56 08:58:54 00:21:58 ¿COMO LO HACEN? 1,95 29,09
08:58:59 09:58:19 00:59:20 WILD FRANK:CIRCO 1,1 22,75
09:58:34 10:56:06 00:57:32 WILD FRANK 1,28 33,67
10:56:21 11:54:59 00:58:38 CURIOSIDADES DE LA TIERRA 1,8 55,65
11:55:04 12:50:03 00:54:59 EXPEDICION AL PASADO 1,76 65,79
12:50:08 13:45:54 00:55:46 EXPEDICION AL PASADO 1,3 65,66
13:45:59 14:45:33 00:59:34 ALASKA,ULTIMA FRONTERA 1,21 99,58
14:45:38 15:44:42 00:59:04 ALASKA,ULTIMA FRONTERA 1,4 153,24
15:45:07 16:41:45 00:56:38 LA FIEBRE DEL ORO 2,09 235,96
16:42:40 17:38:27 00:55:47 LA FIEBRE DEL ORO 2,21 231,82
17:39:22 18:38:14 00:58:52 CAMIONEROS DE AUSTRALIA 1,03 95,67
18:38:39 19:37:04 00:58:25 CAMIONEROS DE AUSTRALIA 1,01 78,1
19:37:09 20:20:58 00:43:49 FAST N'LOUD 1,63 124,94
20:21:03 21:17:29 00:56:26 FAST N'LOUD 2 178,43
21:25:00 21:30:00 00:05:00 ¿COMO LO HACEN? 0,95 98,51
21:30:20 21:52:18 00:21:58 ¿COMO LO HACEN? 1,34 147,76
22:00:09 22:22:03 00:21:54 ¿COMO LO HACEN? 3,18 384,51
22:30:28 23:50:49 01:20:21 CLANDESTINO CON DAVID BERIAIN 2,19 257,04
23:57:20 24:54:36 00:57:16 TANTO X CIENTO / TEMERARIOS AL VOLANTE 1,42 113,19
24:54:41 25:52:15 00:57:34 TANTO X CIENTO / BAJO TIERRA 1,08 46,74
25:52:20 26:29:59 00:37:39 TANTO X CIENTO / EL NEGOCIO DE LA PROSTITUCION 1,75 47,67
Paramount
Inicio Fin Dur Emisión Share Miles
02:30:00 02:56:53 00:26:53 CINE / DRAGONES Y MAZMORRAS:EL LIBRO DE LA VIL OSCURIDAD 4,31 84,05
02:56:53 04:10:37 01:13:44 CINE / PAELLA TODAY 4,25 49,81
04:10:37 04:55:18 00:44:41 ALASKA & MARIO / HURACAN MEXICANO 5,06 36,73
04:55:18 05:37:39 00:42:21 ALASKA & MARIO / HURACAN BINGO 3,71 21,4
05:37:39 06:19:09 00:41:30 ALASKA & MARIO / HURACAN CAMAS 3 16,23
06:19:09 06:59:53 00:40:44 CINEXPRESS 2,18 11,85
07:00:02 09:30:04 02:30:02 GALERIA DEL COLECCIONISTA 0,56 6,68
09:30:04 10:00:03 00:29:59 TOP GALERIA 0,17 3,78
10:00:03 10:45:04 00:45:01 GALERIA DEL COLECCIONISTA 0,01 0,31
10:45:04 11:15:02 00:29:58 TOP GALERIA 0,22 6,29
11:15:10 11:34:25 00:19:15 CINEXPRESS 0,67 20,45
11:40:53 12:39:10 00:58:17 EL PADRE BROWN / LA FLOR DE LA CALLE 1,1 39,38
12:39:10 14:34:57 01:55:47 MISS MARPLE / UN PUÑADO DE CENTENO 0,86 53,21
14:34:57 16:07:55 01:32:58 CINE / DE VUELTA A CASA,UN VIAJE INCREIBLE 1,13 122,45
16:07:55 18:19:07 02:11:12 CINE / COLMILLO BLANCO(1990) 2,17 226,5
18:19:07 20:16:26 01:57:19 CINE / VUELVE COLMILLO BLANCO 2,64 207,82
20:21:10 22:26:48 02:05:38 CINE / LA SOMBRA DE LA NOCHE 1,54 158,11
22:26:48 24:25:02 01:58:14 CINE / LA MALDICION DE ROOKFORD 2,36 259,08
24:25:02 26:15:52 01:50:50 CINE / INSIDIOUS 3,07 146,41
26:15:52 26:29:59 00:14:07 CINE / DOS AÑOS DE VACACIONES 2,08 50,23
Teledeporte
Inicio Fin Dur Emisión Share Miles
02:30:00 03:46:22 01:16:22 HOCKEY HIERBA:CAMPEONATO DE EUROPA(D) / ESPAÑA-GALES 0,13 1,96
03:46:52 05:16:40 01:29:48 NATACION ARTISTICA:CAMPEONATO DEL MUNDO(D) / GWANGJU 0,03 0,22
05:17:53 05:23:45 00:05:52 MOUNTAIN BIKE:CAMPEONATO DE ESPAÑA BTT RESUMEN / ARGUEDAS 0,07 0,39
05:24:03 06:12:27 00:48:24 NATACION:SALTOS TRAMPOLIN:CAMPEONATO DEL MUNDO(D) / GWANGJU 0,17 0,97
06:13:47 06:26:15 00:12:28 CICLISMO:MARCHA CICLOTURISTA PURITO-ANDORRA RESUM 0,34 1,67
06:26:35 08:43:09 02:16:34 CICLISMO:LA COURSE BY LE TOUR DE FRANCE(D) / PAU-PAU 0,73 6,12
08:43:09 08:49:46 00:06:37 POST CICLISMO:LA COURSE BY LE TOUR DE FRANCE / PAU-PAU 0,48 6,95
08:51:00 10:09:54 01:18:54 BALONCESTO:EUROBASKET FEMENINO(D) / SERBIA-GRAN BRETAÑA 0,45 9,42
10:13:24 11:46:59 01:33:35 ESTUDIO ESTADIO 1,75 50,39
11:48:09 12:39:56 00:51:47 AUTOMOVILISMO:CAMPEONATO DEL MUNDO RALLYS RESUMEN / RALLY DE FINLANDIA 0,61 22,2
12:41:27 14:04:33 01:23:06 HOCKEY HIERBA:CAMPEONATO DE EUROPA(D) / ESPAÑA-GALES 0,41 22,06
14:06:05 15:39:05 01:32:60 GIMNASIA RITMICA:CAMPEONATO DE EUROPA(D) 0,16 16,39
15:40:57 16:05:00 00:24:03 FUTBOL:LIGA ESPAÑOLA RESUMEN 0,25 27,98
16:05:05 16:58:31 00:53:26 BADMINTON:CAMPEONATO DEL MUNDO / P.ABIAN-K.TSUNEYAMA 0,15 16,36
16:58:57 17:28:28 00:29:31 GIMNASIA RITMICA:CAMPEONATO DE EUROPA(D) 0,18 19,05
17:29:38 17:54:15 00:24:37 FUTBOL:LIGA ESPAÑOLA RESUMEN 0,26 25,48
17:54:20 19:31:02 01:36:42 HOCKEY HIERBA:CAMPEONATO DE EUROPA FEMENINO / ESPAÑA-HOLANDA 0,5 42,12
18:38:00 18:46:10 00:08:10 EVASION TV 0,56 46,12
19:32:08 19:37:12 00:05:04 MUJER Y DEPORTE / ANTIA FREITAS 0,46 34,83
19:37:41 19:45:15 00:07:34 PIRAGUISMO:MINI SELLA RESUMEN 0,37 27,82
19:46:13 20:47:00 01:00:47 FAST FUT 0,52 41,13
20:48:29 21:17:42 00:29:13 FAST FUT 0,31 29,34
21:18:36 22:12:09 00:53:33 BADMINTON:CAMPEONATO DEL MUNDO(D) / P.ABIAN-K.TSUNEYAMA 0,17 19,24
22:13:09 24:16:27 02:03:18 TRIATLON:ITU WORLD SERIES(D) / TOKIO 0,51 57,89
24:16:48 25:17:37 01:00:49 FAST FUT 0,85 55,53
25:18:31 25:47:45 00:29:14 FAST FUT 0,69 26,6
25:48:13 26:29:59 00:41:46 HOCKEY HIERBA:CAMPEONATO DE EUROPA FEMENINO(D) / ESPAÑA-HOLANDA 0,31 8,49
24 Horas
Inicio Fin Dur Emisión Share Miles
02:30:08 02:59:36 00:29:28 NOTICIAS 24H 0,96 18,43
03:00:06 03:29:21 00:29:15 NOTICIAS 24H 0,91 12,48
03:30:06 03:59:31 00:29:25 NOTICIAS 24H 0,45 4,79
04:00:06 04:25:13 00:25:07 NOTICIAS 24H 0,38 3,08
04:25:21 04:59:58 00:34:37 INFORME SEMANAL 0,5 3,41
05:00:03 05:29:09 00:29:06 CONVERSATORIOS EN CASA DE AMERICA / ALEJANDRO ROEMMERS 1,07 6,08
05:30:06 05:59:30 00:29:24 NOTICIAS 24H 1,67 9,68
06:00:06 06:29:30 00:29:24 NOTICIAS 24H 3,88 19,26
06:30:07 06:59:32 00:29:25 NOTICIAS 24H 1,76 9,9
07:00:06 14:59:22 07:59:16 NOTICIAS 24H 1,13 39,99
12:13:55 12:42:23 00:28:28 NOTICIAS 24H:EN DIRECTO / COMUNIDAD DE MADRID 1 38,11
12:44:05 13:16:12 00:32:07 NOTICIAS 24H:EN DIRECTO / COMUNIDAD DE MADRID 1,33 58,89
15:05:03 15:59:41 00:54:38 TELEDIARIO 1 0,96 107,63
15:59:41 16:14:22 00:14:41 CAMARA ABIERTA 2.0 0,42 47,76
16:14:22 16:29:06 00:14:44 ZOOM NET 0,3 34,92
16:29:06 16:37:27 00:08:21 LA AVENTURA DEL SABER EXPRESS 0,32 35,52
16:40:40 17:00:07 00:19:27 ESPAÑA EN 24 HORAS 0,25 27,87
17:00:07 20:59:29 03:59:22 LA TARDE EN 24H 0,38 32,47
21:03:58 22:05:54 01:01:56 TELEDIARIO 2 0,76 81,89
21:54:50 22:05:50 00:11:00 EL TIEMPO 2 1,03 121,39
22:05:54 22:47:14 00:41:20 EN PORTADA / NOSOTRAS,LAS VULNERADAS 0,44 54,54
22:47:14 22:57:44 00:10:30 INFORME SEMANAL / LA AGONIA DEL OPEN ARMS 0,53 65,24
23:00:06 23:59:17 00:59:11 NOTICIAS 24H 0,7 77,71
23:14:19 23:39:47 00:25:28 NOTICIAS 24H:EN DIRECTO / RUEDA DE PRENSA DEL PRESIDENTE DE CANARIAS ANGEL VICTOR TORRES 0,74 83,46
24:00:06 24:29:58 00:29:52 NOTICIAS 24H 0,72 62,32
24:30:07 24:59:56 00:29:49 NOTICIAS 24H 0,96 64,25
25:00:06 25:29:55 00:29:49 NOTICIAS 24H 0,63 29,27
25:30:06 25:59:55 00:29:49 NOTICIAS 24H 0,8 27,5
26:00:06 26:29:51 00:29:45 NOTICIAS 24H 0,63 16,49
Clan
Inicio Fin Dur Emisión Share Miles
02:30:00 02:47:33 00:17:33 ICARLY / ME GUSTA JAKE 0,74 15,17
02:47:47 02:52:49 00:05:02 OLIVE,LA PEQUEÑA AVESTRUZ 0,38 6,86
02:57:55 03:08:23 00:10:28 JELLY JAMM 0,41 6,16
03:08:23 03:19:16 00:10:53 JELLY JAMM 0,45 6,16
03:19:47 03:30:59 00:11:12 LOS DIABLILLOS 0,82 10,29
03:30:59 03:42:11 00:11:12 LOS DIABLILLOS 1 11,59
03:42:19 04:04:12 00:21:53 LAS TORTUGAS NINJA 1,14 10,94
04:04:20 04:15:18 00:10:58 DANGER MOUSE 0,87 7,13
04:15:35 04:27:06 00:11:31 JAMIE TENTACULOS 0,89 6,85
04:27:06 04:38:01 00:10:55 JAMIE TENTACULOS 0,52 3,85
04:38:09 04:59:06 00:20:57 THE LOONEY TUNES SHOW 0,14 0,91
04:59:06 05:18:03 00:18:57 THE LOONEY TUNES SHOW 0 0
05:18:11 05:27:51 00:09:40 TIMMY TIME 0 0
05:28:02 05:49:38 00:21:36 EL SHOW DE PEABODY Y SHERMAN 0 0
05:49:50 05:54:52 00:05:02 OLIVE,LA PEQUEÑA AVESTRUZ 0 0
06:00:06 06:05:06 00:05:00 OLIVE,LA PEQUEÑA AVESTRUZ 0 0
06:05:06 06:10:06 00:05:00 OLIVE,LA PEQUEÑA AVESTRUZ 0 0
06:10:06 06:15:06 00:05:00 OLIVE,LA PEQUEÑA AVESTRUZ 0,85 4,18
06:38:52 06:46:54 00:08:02 CAILLOU 0,64 3,71
06:46:54 06:54:05 00:07:11 CAILLOU 0,21 1,21
06:54:05 07:01:15 00:07:10 CAILLOU 0 0
07:01:25 07:11:58 00:10:33 LA DIVISION ODD / MI MEJOR MITAD 0,19 1,26
07:11:58 07:22:02 00:10:04 LA DIVISION ODD / LOS CONFALONES 0 0
08:02:13 08:09:07 00:06:54 YOYO 4,23 41,19
08:09:07 08:16:07 00:07:00 YOYO 4,1 44,17
08:16:07 08:23:04 00:06:57 YOYO 3,86 44,07
08:23:15 08:46:14 00:22:59 LAZY TOWN / EL DIA DEL AMIGO INVISIBLE 4,65 61,3
08:46:22 08:58:27 00:12:05 MARCUS LEVEL 5,83 90,37
08:58:27 09:09:57 00:11:30 MARCUS LEVEL 5,3 93,79
09:34:22 09:58:13 00:23:51 LAZY TOWN ¡EN MARCHA! / PIES LOCOS-LOCOS 6,46 145,29
09:58:21 10:03:41 00:05:20 SIMON 5,51 133,58
10:03:41 10:09:00 00:05:19 SIMON 5,04 123,76
10:09:00 10:14:20 00:05:20 SIMON 5,24 132,6
10:14:20 10:19:39 00:05:19 SIMON 5,46 139,31
10:20:38 10:31:44 00:11:06 TROLLS ¡NO PIERDAS EL RITMO! 6,3 165,43
10:31:44 10:42:15 00:10:31 TROLLS ¡NO PIERDAS EL RITMO! 5,95 162,28
10:42:23 10:53:59 00:11:36 EL SHOW DE GARFIELD 5,65 157,46
10:53:59 11:05:52 00:11:53 EL SHOW DE GARFIELD 5,97 167,74
11:06:12 11:16:52 00:10:40 LUO BAO BEI 5,22 149,81
11:16:52 11:27:32 00:10:40 LUO BAO BEI 5,52 166,56
11:27:40 11:38:17 00:10:37 EL PEQUEÑO REINO DE BEN Y HOLLY 6,28 203,79
11:38:17 11:48:19 00:10:02 EL PEQUEÑO REINO DE BEN Y HOLLY 6,74 224,9
11:48:27 12:00:31 00:12:04 MARCUS LEVEL 6,8 231,2
12:00:31 12:12:01 00:11:30 MARCUS LEVEL 6,15 216,07
12:12:27 12:24:47 00:12:20 ZOLI Y POUET 4,19 154,19
12:24:47 12:37:07 00:12:20 ZOLI Y POUET 3,96 152,82
12:37:15 12:48:49 00:11:34 JAMIE TENTACULOS 3,43 138,9
12:48:49 12:59:47 00:10:58 JAMIE TENTACULOS 2,81 121,08
12:59:55 13:21:55 00:22:00 ESCUELA DE ROCK / CUIDANDO EL NEGOCIO 1,74 82,4
13:22:03 13:42:19 00:20:16 100 COSAS QUE HACER ANTES DE IR AL INSTITUTO 1,99 111,07
13:42:30 13:54:12 00:11:42 BOB ESPONJA 2,04 130,04
13:54:12 14:05:11 00:10:59 BOB ESPONJA 3,14 224,86
14:05:11 14:16:25 00:11:14 BOB ESPONJA 3,75 295,18
14:16:25 14:26:59 00:10:34 BOB ESPONJA 3,75 325,75
14:26:59 14:38:15 00:11:16 BOB ESPONJA 4,19 392,89
14:38:15 14:48:45 00:10:30 BOB ESPONJA 3,69 367,59
14:50:36 15:12:37 00:22:01 HENRY DANGER 3,23 347,09
15:12:37 15:34:35 00:21:58 HENRY DANGER 3,47 391,12
15:34:43 15:55:48 00:21:05 KNIGHT SQUAD:ACADEMIA DE CABALLERIA 2,47 275,83
15:56:36 16:08:41 00:12:05 MARCUS LEVEL 2,21 248,4
16:08:41 16:20:11 00:11:30 MARCUS LEVEL 2,43 277,66
16:20:39 16:25:58 00:05:19 SIMON 1,86 213,75
16:25:58 16:31:17 00:05:19 SIMON 2,07 235,03
16:31:17 16:36:36 00:05:19 SIMON 1,99 221,59
16:36:36 16:41:56 00:05:20 SIMON 2,13 236,98
17:23:40 17:34:28 00:10:48 TOP WING 2,54 256,47
17:34:28 17:44:47 00:10:19 TOP WING 2,32 230,62
17:45:00 17:56:06 00:11:06 TROLLS ¡NO PIERDAS EL RITMO! 2,09 202,18
17:56:06 18:06:37 00:10:31 TROLLS ¡NO PIERDAS EL RITMO! 1,91 181,12
18:06:45 18:18:34 00:11:49 EL SHOW DE GARFIELD 1,56 143,7
18:18:50 18:41:40 00:22:50 LAZY TOWN / ES HORA DE APRENDER 1,55 135,23
18:41:40 19:05:34 00:23:54 LAZY TOWN ¡EN MARCHA! / EL PIRATA BARBA-RETOS 2,19 172,33
19:05:42 19:16:20 00:10:38 EL PEQUEÑO REINO DE BEN Y HOLLY 2,1 159,76
19:16:20 19:26:28 00:10:08 EL PEQUEÑO REINO DE BEN Y HOLLY 2,06 156,52
19:26:56 19:39:07 00:12:11 SHERLOCK YACK 1,76 131,82
19:39:07 19:50:42 00:11:35 SHERLOCK YACK 1,83 138,15
19:50:52 20:01:25 00:10:33 LA DIVISION ODD / DESORDEN EN LA SALA 1,38 104,29
20:01:25 20:11:29 00:10:04 LA DIVISION ODD / DESORDEN EN LA SALA(2 PARTE) 1,21 92,61
20:11:45 20:23:49 00:12:04 MARCUS LEVEL 1,35 106,55
20:23:49 20:35:20 00:11:31 MARCUS LEVEL 1,09 88,64
20:35:48 20:47:31 00:11:43 BOB ESPONJA 1,18 100,84
20:47:31 20:58:22 00:10:51 BOB ESPONJA 1,35 122,57
20:58:22 21:09:31 00:11:09 BOB ESPONJA 1,24 119,68
21:09:31 21:20:04 00:10:33 BOB ESPONJA 1,77 177,13
21:20:04 21:31:06 00:11:02 BOB ESPONJA 1,9 194,94
21:31:06 21:41:37 00:10:31 BOB ESPONJA 1,82 197,92
21:41:48 22:03:34 00:21:46 100 COSAS QUE HACER ANTES DE IR AL INSTITUTO / ADOPTAR A UN BEBE DE HARINA 2,01 230,05
22:03:46 22:25:47 00:22:01 HENRY DANGER / HENRY,LA BESTIA HUMANA 2,35 286,92
22:25:47 22:47:31 00:21:44 HENRY DANGER 2,43 304,72
22:47:48 23:08:53 00:21:05 KNIGHT SQUAD:ACADEMIA DE CABALLERIA 1,09 132,68
23:09:51 23:31:51 00:22:00 ESCUELA DE ROCK / ¿ES VERDAD QUE SALE CON EL? 0,96 110,98
23:31:59 23:52:45 00:20:46 100 COSAS QUE HACER ANTES DE IR AL INSTITUTO / HACER DE HADA MADRINA 1,24 130,26
23:53:53 24:14:58 00:21:05 KNIGHT SQUAD:ACADEMIA DE CABALLERIA 1,15 107,37
24:15:59 24:37:58 00:21:59 HENRY DANGER / DEMASIADO EN JUEGO 1,34 105,15
24:38:59 25:01:26 00:22:27 ICARLY / ESPIANDO A UNA MALVADA PROFESORA 1,22 78,33
25:01:57 26:02:27 01:00:30 LOS MISTERIOS DE LAURA / EL MISTERIO DE LA DAMA ROJA 1,55 61,5
26:02:27 26:29:59 00:27:32 LOS MISTERIOS DE LAURA / EL MISTERIO DE LOS DIEZ DESCONOCIDOS 2,02 52,26
13TV
Inicio Fin Dur Emisión Share Miles
02:30:00 08:00:04 05:30:04 GALERIA DEL COLECCIONISTA 0,27 2,3
08:00:04 09:00:16 01:00:12 JOYASTV 0,99 12,66
09:00:16 10:56:55 01:56:39 GALERIA DEL COLECCIONISTA 0,69 16,33
11:00:04 11:38:15 00:38:11 SANTA MISA 1,92 57,72
11:50:54 12:31:59 00:41:05 AMPARO PORTILLA:UNA CITA EN EL CIELO 0,53 19,09
12:38:32 13:33:55 00:55:23 REX,UN POLICIA DIFERENTE / EL AULLIDO 1,71 79,82
13:33:55 14:28:09 00:54:14 REX,UN POLICIA DIFERENTE / MI BANDA TOCA EL ROCK 1,47 106,84
14:29:42 14:43:21 00:13:39 AL DIA 0,62 59,03
14:46:54 16:18:13 01:31:19 SESION DOBLE / SUDAN 1,61 178,73
16:18:13 18:35:26 02:17:13 SESION DOBLE / SCHEHEREZADE 2,62 266,74
18:35:26 19:59:43 01:24:17 CINE WESTERN / EL CAZADOR DE RECOMPENSAS 4,28 330,28
20:09:14 21:58:35 01:49:21 CINE / UN EJERCITO DE CINCO HOMBRES 3,28 312,82
22:00:06 22:29:39 00:29:33 TRECE AL DIA NOTICIAS 1,65 201,37
22:31:36 22:59:22 00:27:46 EL CASCABEL:PREVIO 1,94 242,22
22:59:22 24:31:26 01:32:04 EL CASCABEL 2,7 276,99
24:31:26 25:45:14 01:13:48 EL COMISARIO / HISTORIA DE UN POLICIA 1,24 65,16
25:45:14 26:29:59 00:44:45 GALERIA DEL COLECCIONISTA 0,05 1,48
Disney
Inicio Fin Dur Emisión Share Miles
02:30:51 02:49:39 00:18:48 CAMBIO DE CLASE 0,09 1,85
02:50:04 03:07:07 00:17:03 CAMBIO DE CLASE 1 16,12
03:07:57 03:25:13 00:17:16 CAMBIO DE CLASE 0,71 9,63
03:25:48 03:43:36 00:17:48 CAMBIO DE CLASE 1,91 22,3
03:44:06 03:50:54 00:06:48 MICKEY MOUSE 1,16 11,77
03:50:54 04:08:36 00:17:42 CAMBIO DE CLASE 1,24 11,05
04:10:11 04:30:09 00:19:58 CAMBIO DE CLASE 1,25 9,71
04:30:34 04:49:33 00:18:59 CAMBIO DE CLASE 1,55 10,79
04:49:53 05:09:26 00:19:33 CAMBIO DE CLASE 1,46 8,77
05:09:26 05:28:12 00:18:46 CAMBIO DE CLASE 1,41 7,97
05:28:12 05:45:59 00:17:47 CAMBIO DE CLASE 1,18 6,84
05:46:34 05:53:21 00:06:47 MICKEY MOUSE 0,93 5,47
05:53:21 05:59:32 00:06:11 CAMBIO DE CLASE / CLASE DE INFORMATICA 1,48 8,42
06:00:03 06:08:04 00:08:01 CAMBIO DE CLASE / LA BANDA DE MAX,EL LIMPIO 0,96 4,87
06:08:54 06:16:09 00:07:15 CAMBIO DE CLASE / EL NUEVO MANAGER 1,35 6,66
06:16:49 06:23:37 00:06:48 MICKEY MOUSE 0,58 2,89
06:23:37 06:46:44 00:23:07 HENRY,EL MONSTRUO FELIZ 0,54 2,89
06:47:27 07:10:34 00:23:07 HENRY,EL MONSTRUO FELIZ 0,47 2,89
07:11:09 07:33:14 00:22:05 ART ATTACK 0,53 3,86
07:34:06 07:46:00 00:11:54 BINGO Y ROLLY 0,37 2,89
07:50:17 08:11:33 00:21:16 PRODIGIOSA:LAS AVENTURAS DE LADYBUG 1,22 11,23
08:14:20 08:35:39 00:21:19 PRODIGIOSA:LAS AVENTURAS DE LADYBUG 5,8 70,43
08:38:00 08:44:48 00:06:48 MICKEY MOUSE 4,85 67,31
08:44:48 09:07:30 00:22:42 VAMPIRINA 3,15 51,39
09:09:15 09:31:58 00:22:43 VAMPIRINA 3,89 77,49
09:34:14 09:55:34 00:21:20 PRODIGIOSA:LAS AVENTURAS DE LADYBUG 3,79 84,75
09:57:31 10:18:46 00:21:15 PRODIGIOSA:LAS AVENTURAS DE LADYBUG 5,14 127,78
10:22:14 10:43:32 00:21:18 PRODIGIOSA:LAS AVENTURAS DE LADYBUG 3,83 102,92
10:46:15 11:09:02 00:22:47 ENTRE HERMANOS 2,17 60,77
11:14:08 11:36:24 00:22:16 ENTRE HERMANOS 2,96 91,18
11:38:03 11:50:55 00:12:52 JAJA SHOW:HORA DE PRINGUE 2,96 99,04
11:53:49 12:18:56 00:25:07 ¡BUENA SUERTE,CHARLIE! 2,6 91,33
12:22:16 12:43:33 00:21:17 ¡BUENA SUERTE,CHARLIE! 2,61 101,61
12:44:53 13:08:48 00:23:55 JESSIE 2,49 108,31
13:10:38 13:32:55 00:22:17 JESSIE 2,11 108,9
13:34:15 13:56:33 00:22:18 JESSIE 2,32 143,97
13:58:46 14:10:47 00:12:01 JAJA SHOW:HORA DE PRINGUE 1,6 119,94
14:12:51 14:34:09 00:21:18 PRODIGIOSA:LAS AVENTURAS DE LADYBUG 1,33 117,34
14:36:06 14:57:26 00:21:20 PRODIGIOSA:LAS AVENTURAS DE LADYBUG 1,44 145,25
15:00:22 15:21:41 00:21:19 PRODIGIOSA:LAS AVENTURAS DE LADYBUG 1,25 137,63
15:25:07 15:47:40 00:22:33 ENTRE HERMANOS 0,79 89,15
15:50:01 16:12:31 00:22:30 ENTRE HERMANOS 1,09 121,98
16:15:01 16:36:05 00:21:04 JESSIE 0,87 99,22
16:40:02 17:02:48 00:22:46 JESSIE 1,38 150,27
17:05:03 17:27:33 00:22:30 JESSIE 1,62 168,12
17:30:03 17:41:55 00:11:52 VAMPIRINA 1,53 151,88
17:44:25 18:07:08 00:22:43 VAMPIRINA 1,56 149,86
18:10:28 18:33:13 00:22:45 VAMPIRINA 1,45 130,7
18:36:03 18:47:56 00:11:53 VAMPIRINA 1,29 106,83
18:47:56 19:09:13 00:21:17 PRODIGIOSA:LAS AVENTURAS DE LADYBUG 1,33 103,05
19:14:23 19:35:41 00:21:18 PRODIGIOSA:LAS AVENTURAS DE LADYBUG 1,17 88,55
19:39:33 20:01:04 00:21:31 ¡BUENA SUERTE,CHARLIE! 0,66 49,87
20:04:07 20:26:08 00:22:01 ¡BUENA SUERTE,CHARLIE! 0,68 52,96
20:28:51 20:41:12 00:12:21 JAJA SHOW:HORA DE PRINGUE 0,9 74,22
20:45:32 21:06:49 00:21:17 PRODIGIOSA:LAS AVENTURAS DE LADYBUG 1,23 113,94
21:10:59 21:32:17 00:21:18 PRODIGIOSA:LAS AVENTURAS DE LADYBUG 1,35 137,23
21:35:25 21:56:43 00:21:18 PRODIGIOSA:LAS AVENTURAS DE LADYBUG 1,33 149,03
21:59:50 22:23:03 00:23:13 ENTRE HERMANOS 1,01 122,18
22:25:51 22:46:40 00:20:49 ENTRE HERMANOS 0,72 90,75
22:49:57 23:13:25 00:23:28 BIZAARDVARK 0,53 64,46
23:16:12 23:38:44 00:22:32 BIZAARDVARK 0,55 62,65
23:40:29 24:02:59 00:22:30 JESSIE 0,68 68,38
24:06:19 24:27:51 00:21:32 JESSIE 0,85 72,06
24:29:18 24:36:06 00:06:48 MICKEY MOUSE 0,92 68,68
24:36:06 24:54:45 00:18:39 CAMBIO DE CLASE 0,59 39,55
24:55:15 25:01:21 00:06:06 CAMBIO DE CLASE / CONCURSO DE BELLEZA 0,44 25,24
25:01:46 25:23:39 00:21:53 ART ATTACK 0,97 46,07
25:24:27 25:41:10 00:16:43 CAMBIO DE CLASE 0,78 30,09
25:41:30 25:59:46 00:18:16 CAMBIO DE CLASE 0,54 17,64
26:00:31 26:07:19 00:06:48 MICKEY MOUSE 0,72 20,78
26:07:19 26:26:01 00:18:42 CAMBIO DE CLASE 0,69 17,84
Dkiss
Inicio Fin Dur Emisión Share Miles
02:30:00 02:43:34 00:13:34 ALTA INFIDELIDAD:1000 MANERAS DE TRAICIONAR 2,71 56,8
02:43:39 03:05:12 00:21:33 URGENCIAS BIZARRAS 2,32 39,44
03:05:17 03:48:19 00:43:02 URGENCIAS BIZARRAS 1,98 24,77
03:48:24 04:32:07 00:43:43 DESASTRES ESTETICOS:CELEBRITIES 1,53 12,88
04:32:12 05:15:53 00:43:41 DESASTRES ESTETICOS:CELEBRITIES 2,96 18,69
05:15:58 05:59:48 00:43:50 DESASTRES ESTETICOS 2,21 12,78
06:00:03 06:44:04 00:44:01 MAESTROS DE LA RESTAURACION 1,88 9,62
06:44:09 07:27:55 00:43:46 MAESTROS DE LA RESTAURACION 2,52 16,53
07:28:00 08:11:55 00:43:55 MAESTROS DE LA RESTAURACION 4,64 39,37
08:12:00 08:56:00 00:44:00 MAESTROS DE LA RESTAURACION 4,16 54,93
08:56:05 09:43:25 00:47:20 MAESTROS DE LA RESTAURACION 2,12 41,59
09:43:30 10:30:43 00:47:13 MAESTROS DE LA RESTAURACION 1,92 47,43
10:30:48 11:19:32 00:48:44 CAMBIO RADICAL:PERDIENDO PESO 1,19 33,25
11:19:37 12:06:25 00:46:48 CAMBIO RADICAL:PERDIENDO PESO 1,01 33,27
12:12:05 13:03:26 00:51:21 MI VIDA CON 300 KILOS:¿QUE PASO DESPUES? 0,85 33,95
13:03:30 14:00:14 00:56:44 MI VIDA CON 300 KILOS:¿QUE PASO DESPUES? 0,87 49,05
14:00:29 14:56:48 00:56:19 MORIR POR AMOR 0,48 43,65
14:56:53 15:53:41 00:56:48 UN CRIMEN PARA RECORDAR 0,68 75,62
15:53:46 16:50:00 00:56:14 UN CRIMEN PARA RECORDAR 0,99 111,8
16:50:05 17:11:15 00:21:10 MINICASAS SOBRE RUEDAS 0,89 95,31
17:11:20 17:38:00 00:26:40 MINICASAS SOBRE RUEDAS 0,73 74,22
17:38:05 17:59:02 00:20:57 MINICASAS SOBRE RUEDAS 1,03 100,63
17:59:07 18:19:57 00:20:50 MINICASAS SOBRE RUEDAS 0,95 88,79
18:20:02 18:45:45 00:25:43 FLIP O FLOP 0,85 73,05
18:46:10 19:06:23 00:20:13 MI CASA SOÑADA 1,26 98,6
19:06:28 19:27:16 00:20:48 MI CASA SOÑADA 1,5 114,15
19:27:21 19:52:44 00:25:23 MI CASA SOÑADA 1,42 106,45
19:53:09 20:13:10 00:20:01 MI CASA SOÑADA 1,43 109,48
20:13:15 20:33:54 00:20:39 MI CASA SOÑADA 1,38 110,38
20:33:59 21:00:55 00:26:56 MI CASA SOÑADA 1,32 116
21:01:00 21:22:47 00:21:47 SI,QUIERO ESE VESTIDO 1,01 100,3
21:22:52 21:50:14 00:27:22 SI,QUIERO ESE VESTIDO 1,06 113,99
21:50:19 22:40:14 00:49:55 PECADOS MORTALES 0,56 68,16
22:40:18 23:37:09 00:56:51 PECADOS MORTALES 0,91 108,68
23:37:14 24:39:55 01:02:41 EL SEXO ME LLEVO A URGENCIAS 1,03 93,03
24:40:03 25:30:03 00:50:00 EL SEXO ME LLEVO A URGENCIAS 1,86 99,89
25:30:08 26:20:32 00:50:24 EL SEXO ME LLEVO A URGENCIAS 3,76 117,97
26:20:37 26:29:59 00:09:22 CUERPOS EMBARAZOSOS:SOBREPESO 2,54 59,99
Gol
Inicio Fin Dur Emisión Share Miles
02:30:00 12:00:02 09:30:02 EHS TV 0,09 1,38
12:00:06 12:24:23 00:24:17 GOLDEN TRAIL WORLD SERIES 0,22 8,07
12:27:31 13:08:09 00:40:38 EL GOLAZO DE LA MAÑANA:PREVIO 1,4 58,27
13:08:09 14:00:30 00:52:21 EL GOLAZO DE LA MAÑANA 1,82 104,63
14:05:27 14:32:10 00:26:43 EL GOLAZO:EXPRESS 1,61 135,7
14:32:10 15:00:06 00:27:56 EL GOLAZO DE GOL 1,65 166,07
15:00:06 15:29:46 00:29:40 EL GOLAZO:POST 1,01 111,76
15:29:46 16:00:05 00:30:19 EL GOLAZO:EXTRA 1,11 123,89
16:03:25 17:00:31 00:57:06 LA PRORROGA DE EL GOLAZO 1,19 132,87
17:01:16 17:56:31 00:55:15 LA LIGA HIGHLIGHTS 0,91 92,41
17:57:05 18:23:48 00:26:43 EL GOLAZO:EXPRESS 1 93,12
18:23:48 18:57:47 00:33:59 EL GOLAZO DE GOL 1,17 96,9
18:57:47 19:28:41 00:30:54 EL GOLAZO:POST 1,36 103,26
19:28:41 20:00:15 00:31:34 EL GOLAZO:EXTRA 1,35 101,93
20:00:19 20:27:57 00:27:38 GOL SPORTS 1,05 82,49
20:30:43 22:28:14 01:57:31 CITY TV 1,11 116,78
20:41:07 22:26:07 01:44:60 FUTBOL:LIGA INGLESA(D) / MANCHESTER CITY-TOTTENHAM 1,1 117,58
22:30:25 23:58:37 01:28:12 LOS LUNES AL GOL 1,1 126,44
24:00:37 24:25:51 00:25:14 ULTIMATE FIGHTING CHAMPIONSHIP:PESO PLUMA(D) / G.BENITEZ-S.YUSUFF 1,58 138,1
24:31:28 25:05:21 00:33:53 ULTIMATE FIGHTING CHAMPIONSHIP:PESO PESADO(D) / D.CORMIER-S.MIOCIC 2,71 176,3
25:05:21 25:40:16 00:34:55 ULTIMATE FIGHTING CHAMPIONSHIP:PESO WELTER(D) / A.PETTIS-N.DIAZ 2,92 125,47
25:44:41 26:08:49 00:24:08 ULTIMATE FIGHTING CHAMPIONSHIP:PESO MEDIO(D) / Y.ROMERO-P.COSTA 3,99 122,93
26:08:49 26:29:49 00:21:00 ULTIMATE FIGHTING CHAMPIONSHIP:PESO MEDIO(D) / D.BRUNSON-I.HEINISCH 4,28 107,18

Utilizamos cookies propias y de terceros para mejorar, recoger datos estadísticos y mostrarle publicidad relevante. Si continúa navegando, está aceptando su uso. Puede obtener más información o cambiar la configuración en política de cookies.